Time,TemperatureF,DewpointF,PressureIn,WindDirection,WindDirectionDegrees,WindSpeedMPH,WindSpeedGustMPH,Humidity,HourlyPrecipIn,Conditions,Clouds,dailyrainin,SoftwareType,DateUTC
2013-11-11 00:01:00,45.7,27.6,30.26,West,270,0.0,-999.0,49,0.00,,,0.00,Wunderground v.1.15,2013-11-11 05:01:00,
2013-11-11 00:02:00,45.8,27.7,30.26,West,272,0.0,1.0,49,0.00,,,0.00,Wunderground v.1.15,2013-11-11 05:02:00,
2013-11-11 00:04:00,45.8,28.2,30.26,West,273,0.0,1.0,50,0.00,,,0.00,Wunderground v.1.15,2013-11-11 05:04:00,
2013-11-11 00:06:00,45.7,27.6,30.26,West,270,0.0,-999.0,49,0.00,,,0.00,Wunderground v.1.15,2013-11-11 05:06:00,
2013-11-11 00:08:00,45.6,28.0,30.26,NNE,19,0.0,1.0,50,0.00,,,0.00,Wunderground v.1.15,2013-11-11 05:08:00,
2013-11-11 00:09:00,45.6,27.5,30.26,NNE,19,0.0,1.0,49,0.00,,,0.00,Wunderground v.1.15,2013-11-11 05:09:00,
2013-11-11 00:11:00,45.4,27.3,30.26,WNW,293,0.0,-999.0,49,0.00,,,0.00,Wunderground v.1.15,2013-11-11 05:11:00,
2013-11-11 00:12:00,45.3,27.2,30.26,North,7,0.0,1.0,49,0.00,,,0.00,Wunderground v.1.15,2013-11-11 05:12:00,
2013-11-11 00:13:00,45.3,27.2,30.26,NNW,340,0.0,1.0,49,0.00,,,0.00,Wunderground v.1.15,2013-11-11 05:13:00,
2013-11-11 00:15:00,45.2,27.6,30.26,East,79,1.0,1.0,50,0.00,,,0.00,Wunderground v.1.15,2013-11-11 05:15:00,
2013-11-11 00:16:00,45.2,27.6,30.26,East,79,0.0,1.0,50,0.00,,,0.00,Wunderground v.1.15,2013-11-11 05:16:00,
2013-11-11 00:17:00,45.2,27.6,30.26,East,79,0.0,1.0,50,0.00,,,0.00,Wunderground v.1.15,2013-11-11 05:17:00,
2013-11-11 00:19:00,45.1,28.0,30.26,WNW,301,0.0,1.0,51,0.00,,,0.00,Wunderground v.1.15,2013-11-11 05:19:00,
2013-11-11 00:21:00,45.1,27.6,30.26,NE,44,0.0,0.0,50,0.00,,,0.00,Wunderground v.1.15,2013-11-11 05:21:00,
2013-11-11 00:22:00,45.0,27.0,30.26,North,354,3.0,3.0,49,0.00,,,0.00,Wunderground v.1.15,2013-11-11 05:22:00,
2013-11-11 00:25:00,45.1,27.6,30.26,NNW,337,0.0,3.0,50,0.00,,,0.00,Wunderground v.1.15,2013-11-11 05:25:00,
2013-11-11 00:26:00,45.0,27.5,30.26,NNE,13,1.0,3.0,50,0.00,,,0.00,Wunderground v.1.15,2013-11-11 05:26:00,
2013-11-11 00:27:00,45.1,27.6,30.26,WNW,290,0.0,3.0,50,0.00,,,0.00,Wunderground v.1.15,2013-11-11 05:27:00,
2013-11-11 00:30:00,45.0,27.0,30.26,NE,51,0.0,0.0,49,0.00,,,0.00,Wunderground v.1.15,2013-11-11 05:30:00,
2013-11-11 00:31:00,45.0,27.5,30.26,North,0,1.0,-999.0,50,0.00,,,0.00,Wunderground v.1.15,2013-11-11 05:31:00,
2013-11-11 00:33:00,45.0,27.5,30.26,WNW,300,2.0,2.0,50,0.00,,,0.00,Wunderground v.1.15,2013-11-11 05:33:00,
2013-11-11 00:34:00,45.0,27.5,30.26,WNW,302,0.0,2.0,50,0.00,,,0.00,Wunderground v.1.15,2013-11-11 05:34:00,
2013-11-11 00:35:00,45.0,27.5,30.26,WSW,253,0.0,2.0,50,0.00,,,0.00,Wunderground v.1.15,2013-11-11 05:35:00,
2013-11-11 00:36:00,45.0,27.5,30.26,WNW,293,0.0,-999.0,50,0.00,,,0.00,Wunderground v.1.15,2013-11-11 05:36:00,
2013-11-11 00:39:00,44.9,27.8,30.26,WSW,253,0.0,2.0,51,0.00,,,0.00,Wunderground v.1.15,2013-11-11 05:39:00,
2013-11-11 00:40:00,44.8,27.8,30.26,WSW,253,1.0,1.0,51,0.00,,,0.00,Wunderground v.1.15,2013-11-11 05:40:00,
2013-11-11 00:41:00,44.7,27.2,30.26,WSW,253,0.0,1.0,50,0.00,,,0.00,Wunderground v.1.15,2013-11-11 05:41:00,
2013-11-11 00:42:00,44.7,27.2,30.26,WSW,253,1.0,1.0,50,0.00,,,0.00,Wunderground v.1.15,2013-11-11 05:42:00,
2013-11-11 00:45:00,44.5,27.0,30.26,WSW,239,1.0,2.0,50,0.00,,,0.00,Wunderground v.1.15,2013-11-11 05:45:00,
2013-11-11 00:46:00,44.4,26.9,30.26,WSW,238,0.0,2.0,50,0.00,,,0.00,Wunderground v.1.15,2013-11-11 05:46:00,
2013-11-11 00:47:00,44.5,27.0,30.27,WSW,237,0.0,2.0,50,0.00,,,0.00,Wunderground v.1.15,2013-11-11 05:47:00,
2013-11-11 00:49:00,44.3,26.8,30.27,WSW,239,0.0,2.0,50,0.00,,,0.00,Wunderground v.1.15,2013-11-11 05:49:00,
2013-11-11 00:51:00,44.2,27.2,30.26,WSW,240,1.0,1.0,51,0.00,,,0.00,Wunderground v.1.15,2013-11-11 05:51:00,
2013-11-11 00:53:00,44.1,26.6,30.26,West,264,0.0,1.0,50,0.00,,,0.00,Wunderground v.1.15,2013-11-11 05:53:00,
2013-11-11 00:54:00,44.0,26.5,30.26,SW,215,0.0,1.0,50,0.00,,,0.00,Wunderground v.1.15,2013-11-11 05:54:00,
2013-11-11 00:55:00,44.0,27.0,30.26,SW,215,0.0,1.0,51,0.00,,,0.00,Wunderground v.1.15,2013-11-11 05:55:00,
2013-11-11 00:56:00,44.0,27.0,30.26,WSW,248,0.0,-999.0,51,0.00,,,0.00,Wunderground v.1.15,2013-11-11 05:56:00,
2013-11-11 00:59:00,43.9,26.9,30.27,SW,215,1.0,1.0,51,0.00,,,0.00,Wunderground v.1.15,2013-11-11 05:59:00,
2013-11-11 01:01:00,43.8,26.3,30.27,SW,215,0.0,1.0,50,0.00,,,0.00,Wunderground v.1.15,2013-11-11 06:01:00,
2013-11-11 01:03:00,43.6,27.6,30.27,SW,215,1.0,1.0,53,0.00,,,0.00,Wunderground v.1.15,2013-11-11 06:03:00,
2013-11-11 01:04:00,43.5,26.6,30.27,WNW,285,1.0,1.0,51,0.00,,,0.00,Wunderground v.1.15,2013-11-11 06:04:00,
2013-11-11 01:06:00,43.5,26.6,30.27,WSW,243,1.0,1.0,51,0.00,,,0.00,Wunderground v.1.15,2013-11-11 06:06:00,
2013-11-11 01:07:00,43.5,26.6,30.26,WSW,243,1.0,1.0,51,0.00,,,0.00,Wunderground v.1.15,2013-11-11 06:07:00,
2013-11-11 01:10:00,43.3,27.3,30.27,SSW,203,0.0,1.0,53,0.00,,,0.00,Wunderground v.1.15,2013-11-11 06:10:00,
2013-11-11 01:11:00,43.3,26.8,30.27,SSW,203,0.0,1.0,52,0.00,,,0.00,Wunderground v.1.15,2013-11-11 06:11:00,
2013-11-11 01:12:00,43.2,26.3,30.27,SSW,203,0.0,1.0,51,0.00,,,0.00,Wunderground v.1.15,2013-11-11 06:12:00,
2013-11-11 01:13:00,43.2,26.3,30.27,SSW,203,0.0,1.0,51,0.00,,,0.00,Wunderground v.1.15,2013-11-11 06:13:00,
2013-11-11 01:15:00,43.1,26.2,30.27,SSW,203,0.0,1.0,51,0.00,,,0.00,Wunderground v.1.15,2013-11-11 06:15:00,
2013-11-11 01:16:00,43.0,26.1,30.27,NW,315,0.0,-999.0,51,0.00,,,0.00,Wunderground v.1.15,2013-11-11 06:16:00,
2013-11-11 01:17:00,43.0,26.1,30.27,NW,322,1.0,2.0,51,0.00,,,0.00,Wunderground v.1.15,2013-11-11 06:17:00,
2013-11-11 01:18:00,43.0,26.1,30.27,NNW,340,1.0,2.0,51,0.00,,,0.00,Wunderground v.1.15,2013-11-11 06:18:00,
2013-11-11 01:20:00,43.1,26.2,30.26,North,10,0.0,0.0,51,0.00,,,0.00,Wunderground v.1.15,2013-11-11 06:20:00,
2013-11-11 01:21:00,43.2,26.3,30.26,North,11,1.0,1.0,51,0.00,,,0.00,Wunderground v.1.15,2013-11-11 06:21:00,
2013-11-11 01:23:00,43.2,26.3,30.26,NW,310,0.0,1.0,51,0.00,,,0.00,Wunderground v.1.15,2013-11-11 06:23:00,
2013-11-11 01:26:00,43.3,26.4,30.26,NW,315,1.0,-999.0,51,0.00,,,0.00,Wunderground v.1.15,2013-11-11 06:26:00,
2013-11-11 01:28:00,43.3,26.4,30.27,NW,322,0.0,1.0,51,0.00,,,0.00,Wunderground v.1.15,2013-11-11 06:28:00,
2013-11-11 01:29:00,43.2,26.3,30.27,NW,322,0.0,1.0,51,0.00,,,0.00,Wunderground v.1.15,2013-11-11 06:29:00,
2013-11-11 01:30:00,43.2,26.3,30.26,NW,308,0.0,1.0,51,0.00,,,0.00,Wunderground v.1.15,2013-11-11 06:30:00,
2013-11-11 01:31:00,43.2,26.3,30.26,NW,315,0.0,-999.0,51,0.00,,,0.00,Wunderground v.1.15,2013-11-11 06:31:00,
2013-11-11 01:34:00,43.2,26.3,30.27,North,10,0.0,1.0,51,0.00,,,0.00,Wunderground v.1.15,2013-11-11 06:34:00,
2013-11-11 01:36:00,43.2,26.3,30.27,North,4,0.0,1.0,51,0.00,,,0.00,Wunderground v.1.15,2013-11-11 06:36:00,
2013-11-11 01:37:00,43.1,26.7,30.27,North,4,0.0,1.0,52,0.00,,,0.00,Wunderground v.1.15,2013-11-11 06:37:00,
2013-11-11 01:38:00,43.0,26.6,30.27,North,3,0.0,1.0,52,0.00,,,0.00,Wunderground v.1.15,2013-11-11 06:38:00,
2013-11-11 01:39:00,43.0,26.1,30.27,North,4,0.0,1.0,51,0.00,,,0.00,Wunderground v.1.15,2013-11-11 06:39:00,
2013-11-11 01:41:00,42.8,26.4,30.27,N/A,-737280,0.0,-999.0,52,0.00,,,0.00,Wunderground v.1.15,2013-11-11 06:41:00,
2013-11-11 01:42:00,42.7,26.3,30.27,North,3,0.0,0.0,52,0.00,,,0.00,Wunderground v.1.15,2013-11-11 06:42:00,
2013-11-11 01:44:00,42.6,25.7,30.27,WNW,293,1.0,1.0,51,0.00,,,0.00,Wunderground v.1.15,2013-11-11 06:44:00,
2013-11-11 01:46:00,42.6,26.2,30.27,NNE,26,2.0,2.0,52,0.00,,,0.00,Wunderground v.1.15,2013-11-11 06:46:00,
2013-11-11 01:47:00,42.7,25.8,30.27,ENE,68,1.0,2.0,51,0.00,,,0.00,Wunderground v.1.15,2013-11-11 06:47:00,
2013-11-11 01:48:00,42.8,26.4,30.27,ENE,68,0.0,2.0,52,0.00,,,0.00,Wunderground v.1.15,2013-11-11 06:48:00,
2013-11-11 01:51:00,42.9,26.0,30.27,ENE,68,0.0,0.0,51,0.00,,,0.00,Wunderground v.1.15,2013-11-11 06:51:00,
2013-11-11 01:53:00,42.8,25.9,30.27,ENE,68,0.0,0.0,51,0.00,,,0.00,Wunderground v.1.15,2013-11-11 06:53:00,
2013-11-11 01:54:00,42.7,25.8,30.27,ENE,68,0.0,0.0,51,0.00,,,0.00,Wunderground v.1.15,2013-11-11 06:54:00,
2013-11-11 01:56:00,42.5,26.1,30.27,ENE,68,0.0,0.0,52,0.00,,,0.00,Wunderground v.1.15,2013-11-11 06:56:00,
2013-11-11 01:57:00,42.4,26.0,30.27,SW,232,1.0,1.0,52,0.00,,,0.00,Wunderground v.1.15,2013-11-11 06:57:00,
2013-11-11 01:59:00,42.3,25.4,30.27,NNE,14,1.0,1.0,51,0.00,,,0.00,Wunderground v.1.15,2013-11-11 06:59:00,
2013-11-11 02:01:00,42.4,26.0,30.26,NNE,26,0.0,0.0,52,0.00,,,0.00,Wunderground v.1.15,2013-11-11 07:01:00,
2013-11-11 02:03:00,42.3,25.9,30.27,NNE,14,0.0,3.0,52,0.00,,,0.00,Wunderground v.1.15,2013-11-11 07:03:00,
2013-11-11 02:04:00,42.3,25.9,30.26,WSW,255,0.0,3.0,52,0.00,,,0.00,Wunderground v.1.15,2013-11-11 07:04:00,
2013-11-11 02:06:00,42.4,26.0,30.27,WNW,289,1.0,3.0,52,0.00,,,0.00,Wunderground v.1.15,2013-11-11 07:06:00,
2013-11-11 02:07:00,42.4,26.0,30.27,NW,322,0.0,3.0,52,0.00,,,0.00,Wunderground v.1.15,2013-11-11 07:07:00,
2013-11-11 02:08:00,42.5,26.1,30.27,NW,321,0.0,3.0,52,0.00,,,0.00,Wunderground v.1.15,2013-11-11 07:08:00,
2013-11-11 02:10:00,42.5,26.1,30.26,NW,322,0.0,0.0,52,0.00,,,0.00,Wunderground v.1.15,2013-11-11 07:10:00,
2013-11-11 02:11:00,42.5,26.6,30.26,NW,322,0.0,0.0,53,0.00,,,0.00,Wunderground v.1.15,2013-11-11 07:11:00,
2013-11-11 02:12:00,42.4,26.5,30.26,NW,322,0.0,0.0,53,0.00,,,0.00,Wunderground v.1.15,2013-11-11 07:12:00,
2013-11-11 02:14:00,42.4,26.0,30.26,NE,44,0.0,1.0,52,0.00,,,0.00,Wunderground v.1.15,2013-11-11 07:14:00,
2013-11-11 02:15:00,42.4,26.0,30.26,NE,46,1.0,1.0,52,0.00,,,0.00,Wunderground v.1.15,2013-11-11 07:15:00,
2013-11-11 02:16:00,42.4,26.5,30.27,East,84,0.0,2.0,53,0.00,,,0.00,Wunderground v.1.15,2013-11-11 07:16:00,
2013-11-11 02:17:00,42.4,26.5,30.27,East,85,0.0,2.0,53,0.00,,,0.00,Wunderground v.1.15,2013-11-11 07:17:00,
2013-11-11 02:20:00,42.3,26.4,30.27,NNW,338,0.0,0.0,53,0.00,,,0.00,Wunderground v.1.15,2013-11-11 07:20:00,
2013-11-11 02:21:00,42.3,25.9,30.26,NNW,338,0.0,1.0,52,0.00,,,0.00,Wunderground v.1.15,2013-11-11 07:21:00,
2013-11-11 02:22:00,42.3,25.9,30.26,NNW,338,0.0,1.0,52,0.00,,,0.00,Wunderground v.1.15,2013-11-11 07:22:00,
2013-11-11 02:25:00,42.0,26.1,30.27,WSW,246,0.0,1.0,53,0.00,,,0.00,Wunderground v.1.15,2013-11-11 07:25:00,
2013-11-11 02:26:00,42.0,25.6,30.26,NNW,345,1.0,4.0,52,0.00,,,0.00,Wunderground v.1.15,2013-11-11 07:26:00,
2013-11-11 02:27:00,41.9,25.5,30.26,NE,35,2.0,4.0,52,0.00,,,0.00,Wunderground v.1.15,2013-11-11 07:27:00,
2013-11-11 02:28:00,42.1,25.7,30.26,NNW,340,1.0,4.0,52,0.00,,,0.00,Wunderground v.1.15,2013-11-11 07:28:00,
2013-11-11 02:30:00,42.3,25.9,30.26,North,357,1.0,1.0,52,0.00,,,0.00,Wunderground v.1.15,2013-11-11 07:30:00,
2013-11-11 02:31:00,42.4,26.0,30.26,North,0,1.0,-999.0,52,0.00,,,0.00,Wunderground v.1.15,2013-11-11 07:31:00,
2013-11-11 02:32:00,42.4,26.0,30.26,NE,44,1.0,3.0,52,0.00,,,0.00,Wunderground v.1.15,2013-11-11 07:32:00,
2013-11-11 02:33:00,42.5,27.0,30.26,ENE,66,1.0,3.0,54,0.00,,,0.00,Wunderground v.1.15,2013-11-11 07:33:00,
2013-11-11 02:36:00,42.5,26.1,30.27,WNW,300,1.0,4.0,52,0.00,,,0.00,Wunderground v.1.15,2013-11-11 07:36:00,
2013-11-11 02:37:00,42.5,26.1,30.27,NNW,338,1.0,4.0,52,0.00,,,0.00,Wunderground v.1.15,2013-11-11 07:37:00,
2013-11-11 02:39:00,42.6,25.7,30.27,West,269,1.0,4.0,51,0.00,,,0.00,Wunderground v.1.15,2013-11-11 07:39:00,
2013-11-11 02:41:00,42.7,26.3,30.27,ENE,61,1.0,3.0,52,0.00,,,0.00,Wunderground v.1.15,2013-11-11 07:41:00,
2013-11-11 02:42:00,42.7,26.3,30.27,ENE,60,1.0,3.0,52,0.00,,,0.00,Wunderground v.1.15,2013-11-11 07:42:00,
2013-11-11 02:44:00,42.7,26.3,30.27,SSE,158,0.0,3.0,52,0.00,,,0.00,Wunderground v.1.15,2013-11-11 07:44:00,
2013-11-11 02:46:00,42.6,25.7,30.27,West,264,1.0,3.0,51,0.00,,,0.00,Wunderground v.1.15,2013-11-11 07:46:00,
2013-11-11 02:47:00,42.6,26.2,30.27,WNW,284,1.0,3.0,52,0.00,,,0.00,Wunderground v.1.15,2013-11-11 07:47:00,
2013-11-11 02:49:00,42.6,25.7,30.27,NNE,27,0.0,3.0,51,0.00,,,0.00,Wunderground v.1.15,2013-11-11 07:49:00,
2013-11-11 02:50:00,42.6,25.7,30.27,North,354,0.0,1.0,51,0.00,,,0.00,Wunderground v.1.15,2013-11-11 07:50:00,
2013-11-11 02:51:00,42.6,25.7,30.27,WSW,245,1.0,2.0,51,0.00,,,0.00,Wunderground v.1.15,2013-11-11 07:51:00,
2013-11-11 02:52:00,42.6,25.7,30.27,SSW,198,1.0,2.0,51,0.00,,,0.00,Wunderground v.1.15,2013-11-11 07:52:00,
2013-11-11 02:53:00,42.6,25.7,30.27,SSW,197,0.0,2.0,51,0.00,,,0.00,Wunderground v.1.15,2013-11-11 07:53:00,
2013-11-11 02:55:00,42.7,25.8,30.27,NNE,30,0.0,4.0,51,0.00,,,0.00,Wunderground v.1.15,2013-11-11 07:55:00,
2013-11-11 02:56:00,42.7,25.8,30.27,NNE,30,0.0,4.0,51,0.00,,,0.00,Wunderground v.1.15,2013-11-11 07:56:00,
2013-11-11 02:57:00,42.7,25.8,30.27,NNE,30,0.0,4.0,51,0.00,,,0.00,Wunderground v.1.15,2013-11-11 07:57:00,
2013-11-11 02:58:00,42.7,25.8,30.27,NNE,30,0.0,4.0,51,0.00,,,0.00,Wunderground v.1.15,2013-11-11 07:58:00,
2013-11-11 03:01:00,42.6,25.7,30.26,WNW,293,1.0,2.0,51,0.00,,,0.00,Wunderground v.1.15,2013-11-11 08:01:00,
2013-11-11 03:02:00,42.5,25.6,30.26,North,357,1.0,2.0,51,0.00,,,0.00,Wunderground v.1.15,2013-11-11 08:02:00,
2013-11-11 03:03:00,42.5,26.1,30.26,SE,128,0.0,2.0,52,0.00,,,0.00,Wunderground v.1.15,2013-11-11 08:03:00,
2013-11-11 03:04:00,42.5,25.6,30.26,SE,127,1.0,2.0,51,0.00,,,0.00,Wunderground v.1.15,2013-11-11 08:04:00,
2013-11-11 03:06:00,42.4,26.0,30.26,NW,323,0.0,3.0,52,0.00,,,0.00,Wunderground v.1.15,2013-11-11 08:06:00,
2013-11-11 03:07:00,42.5,25.6,30.27,NW,323,0.0,3.0,51,0.00,,,0.00,Wunderground v.1.15,2013-11-11 08:07:00,
2013-11-11 03:08:00,42.5,26.1,30.27,NW,323,0.0,3.0,52,0.00,,,0.00,Wunderground v.1.15,2013-11-11 08:08:00,
2013-11-11 03:09:00,42.5,25.6,30.27,West,266,1.0,3.0,51,0.00,,,0.00,Wunderground v.1.15,2013-11-11 08:09:00,
2013-11-11 03:11:00,42.5,26.1,30.27,NW,315,0.0,-999.0,52,0.00,,,0.00,Wunderground v.1.15,2013-11-11 08:11:00,
2013-11-11 03:12:00,42.5,26.1,30.27,East,79,1.0,3.0,52,0.00,,,0.00,Wunderground v.1.15,2013-11-11 08:12:00,
2013-11-11 03:13:00,42.6,25.7,30.27,East,79,0.0,3.0,51,0.00,,,0.00,Wunderground v.1.15,2013-11-11 08:13:00,
2013-11-11 03:14:00,42.6,25.7,30.27,East,99,1.0,3.0,51,0.00,,,0.00,Wunderground v.1.15,2013-11-11 08:14:00,
2013-11-11 03:16:00,42.7,25.8,30.27,East,90,1.0,-999.0,51,0.00,,,0.00,Wunderground v.1.15,2013-11-11 08:16:00,
2013-11-11 03:17:00,42.6,25.7,30.27,SE,128,1.0,3.0,51,0.00,,,0.00,Wunderground v.1.15,2013-11-11 08:17:00,
2013-11-11 03:18:00,42.6,25.7,30.27,SE,128,1.0,3.0,51,0.00,,,0.00,Wunderground v.1.15,2013-11-11 08:18:00,
2013-11-11 03:19:00,42.5,26.1,30.26,SE,129,1.0,3.0,52,0.00,,,0.00,Wunderground v.1.15,2013-11-11 08:19:00,
2013-11-11 03:20:00,42.5,25.6,30.27,SE,128,0.0,1.0,51,0.00,,,0.00,Wunderground v.1.15,2013-11-11 08:20:00,
2013-11-11 03:21:00,42.4,26.0,30.27,SE,135,0.0,-999.0,52,0.00,,,0.00,Wunderground v.1.15,2013-11-11 08:21:00,
2013-11-11 03:22:00,42.3,25.9,30.27,SE,128,0.0,1.0,52,0.00,,,0.00,Wunderground v.1.15,2013-11-11 08:22:00,
2013-11-11 03:23:00,42.3,25.9,30.27,SE,128,0.0,1.0,52,0.00,,,0.00,Wunderground v.1.15,2013-11-11 08:23:00,
2013-11-11 03:24:00,42.3,25.9,30.27,SE,128,0.0,1.0,52,0.00,,,0.00,Wunderground v.1.15,2013-11-11 08:24:00,
2013-11-11 03:25:00,42.2,26.3,30.27,SE,128,0.0,1.0,53,0.00,,,0.00,Wunderground v.1.15,2013-11-11 08:25:00,
2013-11-11 03:26:00,42.1,26.2,30.27,N/A,-737280,0.0,-999.0,53,0.00,,,0.00,Wunderground v.1.15,2013-11-11 08:26:00,
2013-11-11 03:28:00,42.0,26.1,30.27,SE,128,0.0,1.0,53,0.00,,,0.00,Wunderground v.1.15,2013-11-11 08:28:00,
2013-11-11 03:29:00,41.9,26.4,30.27,SSE,165,1.0,1.0,54,0.00,,,0.00,Wunderground v.1.15,2013-11-11 08:29:00,
2013-11-11 03:30:00,41.8,26.4,30.27,ESE,121,1.0,3.0,54,0.00,,,0.00,Wunderground v.1.15,2013-11-11 08:30:00,
2013-11-11 03:31:00,41.8,25.9,30.27,ESE,121,0.0,3.0,53,0.00,,,0.00,Wunderground v.1.15,2013-11-11 08:31:00,
2013-11-11 03:33:00,41.7,25.8,30.27,ESE,121,0.0,3.0,53,0.00,,,0.00,Wunderground v.1.15,2013-11-11 08:33:00,
2013-11-11 03:34:00,41.7,25.8,30.27,ESE,121,0.0,3.0,53,0.00,,,0.00,Wunderground v.1.15,2013-11-11 08:34:00,
2013-11-11 03:35:00,41.6,25.7,30.27,ESE,121,0.0,3.0,53,0.00,,,0.00,Wunderground v.1.15,2013-11-11 08:35:00,
2013-11-11 03:36:00,41.6,25.3,30.28,WNW,294,1.0,3.0,52,0.00,,,0.00,Wunderground v.1.15,2013-11-11 08:36:00,
2013-11-11 03:38:00,41.6,26.2,30.28,ENE,58,0.0,3.0,54,0.00,,,0.00,Wunderground v.1.15,2013-11-11 08:38:00,
2013-11-11 03:39:00,41.7,26.3,30.28,ENE,58,1.0,3.0,54,0.00,,,0.00,Wunderground v.1.15,2013-11-11 08:39:00,
2013-11-11 03:40:00,41.7,26.3,30.28,ENE,58,0.0,0.0,54,0.00,,,0.00,Wunderground v.1.15,2013-11-11 08:40:00,
2013-11-11 03:41:00,41.7,26.3,30.28,ENE,68,1.0,-999.0,54,0.00,,,0.00,Wunderground v.1.15,2013-11-11 08:41:00,
2013-11-11 03:42:00,41.6,26.6,30.27,ENE,57,0.0,1.0,55,0.00,,,0.00,Wunderground v.1.15,2013-11-11 08:42:00,
2013-11-11 03:44:00,41.5,26.1,30.27,NE,56,1.0,1.0,54,0.00,,,0.00,Wunderground v.1.15,2013-11-11 08:44:00,
2013-11-11 03:45:00,41.5,26.1,30.27,ENE,57,1.0,1.0,54,0.00,,,0.00,Wunderground v.1.15,2013-11-11 08:45:00,
2013-11-11 03:46:00,41.4,26.0,30.27,NE,45,0.0,-999.0,54,0.00,,,0.00,Wunderground v.1.15,2013-11-11 08:46:00,
2013-11-11 03:48:00,41.3,26.8,30.27,ENE,57,0.0,1.0,56,0.00,,,0.00,Wunderground v.1.15,2013-11-11 08:48:00,
2013-11-11 03:49:00,41.2,26.7,30.27,ENE,63,1.0,2.0,56,0.00,,,0.00,Wunderground v.1.15,2013-11-11 08:49:00,
2013-11-11 03:50:00,41.0,27.3,30.27,ENE,62,1.0,1.0,58,0.00,,,0.00,Wunderground v.1.15,2013-11-11 08:50:00,
2013-11-11 03:51:00,41.0,26.9,30.27,ENE,64,1.0,1.0,57,0.00,,,0.00,Wunderground v.1.15,2013-11-11 08:51:00,
2013-11-11 03:53:00,40.8,26.3,30.27,NNE,23,1.0,2.0,56,0.00,,,0.00,Wunderground v.1.15,2013-11-11 08:53:00,
2013-11-11 03:54:00,40.9,26.4,30.26,NNE,24,0.0,2.0,56,0.00,,,0.00,Wunderground v.1.15,2013-11-11 08:54:00,
2013-11-11 03:55:00,40.8,26.3,30.26,NNE,25,0.0,2.0,56,0.00,,,0.00,Wunderground v.1.15,2013-11-11 08:55:00,
2013-11-11 03:56:00,40.9,26.4,30.27,NNE,24,0.0,2.0,56,0.00,,,0.00,Wunderground v.1.15,2013-11-11 08:56:00,
2013-11-11 03:58:00,40.8,26.3,30.27,NW,308,2.0,2.0,56,0.00,,,0.00,Wunderground v.1.15,2013-11-11 08:58:00,
2013-11-11 03:59:00,40.9,26.0,30.27,NW,318,1.0,2.0,55,0.00,,,0.00,Wunderground v.1.15,2013-11-11 08:59:00,
2013-11-11 04:00:00,41.0,26.1,30.27,SW,235,2.0,3.0,55,0.00,,,0.00,Wunderground v.1.15,2013-11-11 09:00:00,
2013-11-11 04:01:00,41.1,26.1,30.27,SW,214,1.0,3.0,55,0.00,,,0.00,Wunderground v.1.15,2013-11-11 09:01:00,
2013-11-11 04:03:00,41.5,26.1,30.27,ENE,77,0.0,4.0,54,0.00,,,0.00,Wunderground v.1.15,2013-11-11 09:03:00,
2013-11-11 04:04:00,41.7,26.3,30.27,ENE,76,0.0,4.0,54,0.00,,,0.00,Wunderground v.1.15,2013-11-11 09:04:00,
2013-11-11 04:05:00,41.7,26.3,30.27,ENE,76,0.0,4.0,54,0.00,,,0.00,Wunderground v.1.15,2013-11-11 09:05:00,
2013-11-11 04:06:00,41.8,25.9,30.27,NE,41,1.0,4.0,53,0.00,,,0.00,Wunderground v.1.15,2013-11-11 09:06:00,
2013-11-11 04:07:00,41.8,25.9,30.27,SE,136,1.0,4.0,53,0.00,,,0.00,Wunderground v.1.15,2013-11-11 09:07:00,
2013-11-11 04:08:00,41.9,26.0,30.27,SE,137,0.0,4.0,53,0.00,,,0.00,Wunderground v.1.15,2013-11-11 09:08:00,
2013-11-11 04:10:00,42.0,26.1,30.27,SE,142,0.0,1.0,53,0.00,,,0.00,Wunderground v.1.15,2013-11-11 09:10:00,
2013-11-11 04:11:00,42.0,25.6,30.27,WSW,248,0.0,1.0,52,0.00,,,0.00,Wunderground v.1.15,2013-11-11 09:11:00,
2013-11-11 04:12:00,42.0,25.6,30.27,East,89,1.0,1.0,52,0.00,,,0.00,Wunderground v.1.15,2013-11-11 09:12:00,
2013-11-11 04:13:00,42.0,25.6,30.27,West,281,0.0,1.0,52,0.00,,,0.00,Wunderground v.1.15,2013-11-11 09:13:00,
2013-11-11 04:15:00,42.0,25.6,30.27,West,281,0.0,1.0,52,0.00,,,0.00,Wunderground v.1.15,2013-11-11 09:15:00,
2013-11-11 04:16:00,42.0,25.6,30.27,SW,225,0.0,1.0,52,0.00,,,0.00,Wunderground v.1.15,2013-11-11 09:16:00,
2013-11-11 04:17:00,42.0,25.6,30.27,SW,226,0.0,1.0,52,0.00,,,0.00,Wunderground v.1.15,2013-11-11 09:17:00,
2013-11-11 04:18:00,41.9,25.5,30.27,SW,226,0.0,1.0,52,0.00,,,0.00,Wunderground v.1.15,2013-11-11 09:18:00,
2013-11-11 04:21:00,41.9,26.4,30.28,SW,226,0.0,1.0,54,0.00,,,0.00,Wunderground v.1.15,2013-11-11 09:21:00,
2013-11-11 04:22:00,41.8,26.4,30.28,SW,226,0.0,1.0,54,0.00,,,0.00,Wunderground v.1.15,2013-11-11 09:22:00,
2013-11-11 04:23:00,41.7,25.8,30.28,SW,226,0.0,1.0,53,0.00,,,0.00,Wunderground v.1.15,2013-11-11 09:23:00,
2013-11-11 04:26:00,41.5,26.1,30.28,SW,227,0.0,1.0,54,0.00,,,0.00,Wunderground v.1.15,2013-11-11 09:26:00,
2013-11-11 04:27:00,41.4,25.5,30.28,SW,226,0.0,1.0,53,0.00,,,0.00,Wunderground v.1.15,2013-11-11 09:27:00,
2013-11-11 04:28:00,41.3,25.9,30.28,SW,226,1.0,1.0,54,0.00,,,0.00,Wunderground v.1.15,2013-11-11 09:28:00,
2013-11-11 04:31:00,41.1,25.7,30.28,SW,215,0.0,0.0,54,0.00,,,0.00,Wunderground v.1.15,2013-11-11 09:31:00,
2013-11-11 04:32:00,41.0,25.6,30.28,SW,215,0.0,0.0,54,0.00,,,0.00,Wunderground v.1.15,2013-11-11 09:32:00,
2013-11-11 04:33:00,41.0,25.6,30.28,SW,216,0.0,1.0,54,0.00,,,0.00,Wunderground v.1.15,2013-11-11 09:33:00,
2013-11-11 04:34:00,40.9,25.5,30.28,SW,215,0.0,1.0,54,0.00,,,0.00,Wunderground v.1.15,2013-11-11 09:34:00,
2013-11-11 04:36:00,40.7,25.3,30.28,SW,215,0.0,1.0,54,0.00,,,0.00,Wunderground v.1.15,2013-11-11 09:36:00,
2013-11-11 04:37:00,40.7,25.3,30.28,SW,215,0.0,1.0,54,0.00,,,0.00,Wunderground v.1.15,2013-11-11 09:37:00,
2013-11-11 04:38:00,40.7,25.3,30.28,SW,214,0.0,1.0,54,0.00,,,0.00,Wunderground v.1.15,2013-11-11 09:38:00,
2013-11-11 04:39:00,40.6,25.2,30.29,SW,215,0.0,1.0,54,0.00,,,0.00,Wunderground v.1.15,2013-11-11 09:39:00,
2013-11-11 04:41:00,40.5,25.6,30.29,SW,225,0.0,-999.0,55,0.00,,,0.00,Wunderground v.1.15,2013-11-11 09:41:00,
2013-11-11 04:42:00,40.5,25.6,30.29,SW,215,0.0,0.0,55,0.00,,,0.00,Wunderground v.1.15,2013-11-11 09:42:00,
2013-11-11 04:43:00,40.4,25.5,30.29,SW,215,0.0,0.0,55,0.00,,,0.00,Wunderground v.1.15,2013-11-11 09:43:00,
2013-11-11 04:44:00,40.3,25.8,30.29,SW,215,0.0,0.0,56,0.00,,,0.00,Wunderground v.1.15,2013-11-11 09:44:00,
2013-11-11 04:46:00,40.1,25.6,30.29,SW,225,0.0,-999.0,56,0.00,,,0.00,Wunderground v.1.15,2013-11-11 09:46:00,
2013-11-11 04:47:00,40.0,26.4,30.29,SW,215,0.0,1.0,58,0.00,,,0.00,Wunderground v.1.15,2013-11-11 09:47:00,
2013-11-11 04:48:00,39.9,26.3,30.29,SW,214,0.0,1.0,58,0.00,,,0.00,Wunderground v.1.15,2013-11-11 09:48:00,
2013-11-11 04:49:00,39.8,26.2,30.29,SW,215,0.0,1.0,58,0.00,,,0.00,Wunderground v.1.15,2013-11-11 09:49:00,
2013-11-11 04:50:00,39.7,25.7,30.29,SW,214,0.0,0.0,57,0.00,,,0.00,Wunderground v.1.15,2013-11-11 09:50:00,
2013-11-11 04:51:00,39.6,25.6,30.29,N/A,-737280,0.0,-999.0,57,0.00,,,0.00,Wunderground v.1.15,2013-11-11 09:51:00,
2013-11-11 04:52:00,39.5,25.5,30.29,SW,215,0.0,1.0,57,0.00,,,0.00,Wunderground v.1.15,2013-11-11 09:52:00,
2013-11-11 04:53:00,39.4,25.4,30.29,SW,215,0.0,1.0,57,0.00,,,0.00,Wunderground v.1.15,2013-11-11 09:53:00,
2013-11-11 04:54:00,39.3,25.3,30.29,SW,215,0.0,1.0,57,0.00,,,0.00,Wunderground v.1.15,2013-11-11 09:54:00,
2013-11-11 04:55:00,39.2,25.6,30.29,SW,215,0.0,1.0,58,0.00,,,0.00,Wunderground v.1.15,2013-11-11 09:55:00,
2013-11-11 04:56:00,39.2,25.6,30.29,SW,225,0.0,-999.0,58,0.00,,,0.00,Wunderground v.1.15,2013-11-11 09:56:00,
2013-11-11 04:57:00,39.2,26.1,30.29,SW,215,0.0,1.0,59,0.00,,,0.00,Wunderground v.1.15,2013-11-11 09:57:00,
2013-11-11 04:59:00,39.1,26.0,30.29,SW,215,0.0,1.0,59,0.00,,,0.00,Wunderground v.1.15,2013-11-11 09:59:00,
2013-11-11 05:00:00,39.0,25.9,30.29,SW,215,0.0,0.0,59,0.00,,,0.00,Wunderground v.1.15,2013-11-11 10:00:00,
2013-11-11 05:01:00,39.0,25.9,30.29,SW,215,0.0,0.0,59,0.00,,,0.00,Wunderground v.1.15,2013-11-11 10:01:00,
2013-11-11 05:02:00,38.9,25.4,30.29,SW,215,0.0,0.0,58,0.00,,,0.00,Wunderground v.1.15,2013-11-11 10:02:00,
2013-11-11 05:04:00,38.9,25.4,30.29,SW,215,0.0,0.0,58,0.00,,,0.00,Wunderground v.1.15,2013-11-11 10:04:00,
2013-11-11 05:05:00,38.8,25.3,30.29,SW,215,0.0,1.0,58,0.00,,,0.00,Wunderground v.1.15,2013-11-11 10:05:00,
2013-11-11 05:06:00,38.7,26.0,30.29,SW,215,0.0,1.0,60,0.00,,,0.00,Wunderground v.1.15,2013-11-11 10:06:00,
2013-11-11 05:07:00,38.7,26.4,30.29,SW,215,0.0,1.0,61,0.00,,,0.00,Wunderground v.1.15,2013-11-11 10:07:00,
2013-11-11 05:09:00,38.6,25.9,30.29,SW,215,0.0,1.0,60,0.00,,,0.00,Wunderground v.1.15,2013-11-11 10:09:00,
2013-11-11 05:10:00,38.5,25.8,30.29,SW,215,0.0,0.0,60,0.00,,,0.00,Wunderground v.1.15,2013-11-11 10:10:00,
2013-11-11 05:11:00,38.4,25.7,30.29,SW,215,0.0,1.0,60,0.00,,,0.00,Wunderground v.1.15,2013-11-11 10:11:00,
2013-11-11 05:12:00,38.4,25.7,30.29,SW,215,0.0,1.0,60,0.00,,,0.00,Wunderground v.1.15,2013-11-11 10:12:00,
2013-11-11 05:13:00,38.3,25.6,30.29,SW,215,0.0,1.0,60,0.00,,,0.00,Wunderground v.1.15,2013-11-11 10:13:00,
2013-11-11 05:14:00,38.2,25.5,30.29,SW,215,0.0,1.0,60,0.00,,,0.00,Wunderground v.1.15,2013-11-11 10:14:00,
2013-11-11 05:15:00,38.2,25.5,30.29,SW,215,0.0,1.0,60,0.00,,,0.00,Wunderground v.1.15,2013-11-11 10:15:00,
2013-11-11 05:16:00,38.1,25.8,30.29,SW,214,0.0,1.0,61,0.00,,,0.00,Wunderground v.1.15,2013-11-11 10:16:00,
2013-11-11 05:17:00,38.1,26.2,30.29,SW,215,0.0,1.0,62,0.00,,,0.00,Wunderground v.1.15,2013-11-11 10:17:00,
2013-11-11 05:18:00,38.0,26.1,30.29,SW,215,0.0,1.0,62,0.00,,,0.00,Wunderground v.1.15,2013-11-11 10:18:00,
2013-11-11 05:19:00,37.9,25.6,30.29,SW,214,0.0,1.0,61,0.00,,,0.00,Wunderground v.1.15,2013-11-11 10:19:00,
2013-11-11 05:20:00,37.8,25.5,30.30,SW,215,0.0,0.0,61,0.00,,,0.00,Wunderground v.1.15,2013-11-11 10:20:00,
2013-11-11 05:21:00,37.8,25.9,30.30,N/A,-737280,0.0,-999.0,62,0.00,,,0.00,Wunderground v.1.15,2013-11-11 10:21:00,
2013-11-11 05:22:00,37.7,25.8,30.30,SW,215,0.0,1.0,62,0.00,,,0.00,Wunderground v.1.15,2013-11-11 10:22:00,
2013-11-11 05:23:00,37.7,25.5,30.30,SW,215,0.0,1.0,61,0.00,,,0.00,Wunderground v.1.15,2013-11-11 10:23:00,
2013-11-11 05:25:00,37.6,25.7,30.30,SW,215,0.0,1.0,62,0.00,,,0.00,Wunderground v.1.15,2013-11-11 10:25:00,
2013-11-11 05:26:00,37.6,26.5,30.30,SW,215,0.0,1.0,64,0.00,,,0.00,Wunderground v.1.15,2013-11-11 10:26:00,
2013-11-11 05:28:00,37.6,26.1,30.29,SW,215,0.0,1.0,63,0.00,,,0.00,Wunderground v.1.15,2013-11-11 10:28:00,
2013-11-11 05:30:00,37.4,25.9,30.30,SW,215,0.0,0.0,63,0.00,,,0.00,Wunderground v.1.15,2013-11-11 10:30:00,
2013-11-11 05:31:00,37.4,25.9,30.30,SW,214,0.0,0.0,63,0.00,,,0.00,Wunderground v.1.15,2013-11-11 10:31:00,
2013-11-11 05:32:00,37.3,25.8,30.30,SW,215,0.0,0.0,63,0.00,,,0.00,Wunderground v.1.15,2013-11-11 10:32:00,
2013-11-11 05:33:00,37.3,25.8,30.30,SW,214,0.0,0.0,63,0.00,,,0.00,Wunderground v.1.15,2013-11-11 10:33:00,
2013-11-11 05:36:00,37.1,25.7,30.30,SW,215,0.0,0.0,63,0.00,,,0.00,Wunderground v.1.15,2013-11-11 10:36:00,
2013-11-11 05:37:00,37.0,25.9,30.30,SW,215,0.0,0.0,64,0.00,,,0.00,Wunderground v.1.15,2013-11-11 10:37:00,
2013-11-11 05:38:00,36.9,26.2,30.30,SW,215,0.0,0.0,65,0.00,,,0.00,Wunderground v.1.15,2013-11-11 10:38:00,
2013-11-11 05:39:00,36.9,26.2,30.30,SW,215,0.0,0.0,65,0.00,,,0.00,Wunderground v.1.15,2013-11-11 10:39:00,
2013-11-11 05:41:00,36.7,26.4,30.30,SW,215,0.0,0.0,66,0.00,,,0.00,Wunderground v.1.15,2013-11-11 10:41:00,
2013-11-11 05:43:00,36.7,26.4,30.30,SW,215,0.0,0.0,66,0.00,,,0.00,Wunderground v.1.15,2013-11-11 10:43:00,
2013-11-11 05:44:00,36.6,25.9,30.30,SW,215,0.0,0.0,65,0.00,,,0.00,Wunderground v.1.15,2013-11-11 10:44:00,
2013-11-11 05:46:00,36.5,26.2,30.30,SW,215,0.0,0.0,66,0.00,,,0.00,Wunderground v.1.15,2013-11-11 10:46:00,
2013-11-11 05:47:00,36.4,26.1,30.30,SW,215,0.0,0.0,66,0.00,,,0.00,Wunderground v.1.15,2013-11-11 10:47:00,
2013-11-11 05:48:00,36.3,26.4,30.30,SW,215,0.0,0.0,67,0.00,,,0.00,Wunderground v.1.15,2013-11-11 10:48:00,
2013-11-11 05:49:00,36.3,26.4,30.30,SW,215,0.0,0.0,67,0.00,,,0.00,Wunderground v.1.15,2013-11-11 10:49:00,
2013-11-11 05:51:00,36.1,26.2,30.30,SW,214,0.0,0.0,67,0.00,,,0.00,Wunderground v.1.15,2013-11-11 10:51:00,
2013-11-11 05:52:00,36.0,26.1,30.30,SW,215,0.0,0.0,67,0.00,,,0.00,Wunderground v.1.15,2013-11-11 10:52:00,
2013-11-11 05:53:00,35.9,26.0,30.30,SW,215,0.0,0.0,67,0.00,,,0.00,Wunderground v.1.15,2013-11-11 10:53:00,
2013-11-11 05:54:00,35.9,26.0,30.30,SW,215,0.0,0.0,67,0.00,,,0.00,Wunderground v.1.15,2013-11-11 10:54:00,
2013-11-11 05:56:00,35.7,26.2,30.31,SW,214,0.0,0.0,68,0.00,,,0.00,Wunderground v.1.15,2013-11-11 10:56:00,
2013-11-11 05:58:00,35.5,25.6,30.31,SW,215,0.0,0.0,67,0.00,,,0.00,Wunderground v.1.15,2013-11-11 10:58:00,
2013-11-11 05:59:00,35.5,25.6,30.31,SW,215,0.0,0.0,67,0.00,,,0.00,Wunderground v.1.15,2013-11-11 10:59:00,
2013-11-11 06:00:00,35.3,25.8,30.31,SW,214,0.0,0.0,68,0.00,,,0.00,Wunderground v.1.15,2013-11-11 11:00:00,
2013-11-11 06:01:00,35.3,25.8,30.31,SW,215,0.0,0.0,68,0.00,,,0.00,Wunderground v.1.15,2013-11-11 11:01:00,
2013-11-11 06:03:00,35.2,25.7,30.31,SW,215,0.0,0.0,68,0.00,,,0.00,Wunderground v.1.15,2013-11-11 11:03:00,
2013-11-11 06:04:00,35.2,25.7,30.31,SW,215,0.0,0.0,68,0.00,,,0.00,Wunderground v.1.15,2013-11-11 11:04:00,
2013-11-11 06:05:00,35.1,25.9,30.31,SW,215,0.0,0.0,69,0.00,,,0.00,Wunderground v.1.15,2013-11-11 11:05:00,
2013-11-11 06:06:00,35.1,25.9,30.31,N/A,-737280,0.0,-999.0,69,0.00,,,0.00,Wunderground v.1.15,2013-11-11 11:06:00,
2013-11-11 06:07:00,35.0,25.9,30.31,SW,214,0.0,0.0,69,0.00,,,0.00,Wunderground v.1.15,2013-11-11 11:07:00,
2013-11-11 06:08:00,34.9,25.4,30.31,SW,215,0.0,0.0,68,0.00,,,0.00,Wunderground v.1.15,2013-11-11 11:08:00,
2013-11-11 06:09:00,34.9,25.8,30.31,SW,214,0.0,0.0,69,0.00,,,0.00,Wunderground v.1.15,2013-11-11 11:09:00,
2013-11-11 06:11:00,34.8,25.7,30.31,SW,215,0.0,0.0,69,0.00,,,0.00,Wunderground v.1.15,2013-11-11 11:11:00,
2013-11-11 06:12:00,34.7,25.6,30.31,SW,215,0.0,0.0,69,0.00,,,0.00,Wunderground v.1.15,2013-11-11 11:12:00,
2013-11-11 06:13:00,34.6,25.5,30.31,SW,215,0.0,0.0,69,0.00,,,0.00,Wunderground v.1.15,2013-11-11 11:13:00,
2013-11-11 06:14:00,34.5,25.7,30.31,SW,215,0.0,0.0,70,0.00,,,0.00,Wunderground v.1.15,2013-11-11 11:14:00,
2013-11-11 06:15:00,34.5,25.7,30.31,SW,215,0.0,0.0,70,0.00,,,0.00,Wunderground v.1.15,2013-11-11 11:15:00,
2013-11-11 06:16:00,34.4,25.6,30.31,N/A,-737280,0.0,-999.0,70,0.00,,,0.00,Wunderground v.1.15,2013-11-11 11:16:00,
2013-11-11 06:17:00,34.3,25.5,30.31,SW,215,0.0,0.0,70,0.00,,,0.00,Wunderground v.1.15,2013-11-11 11:17:00,
2013-11-11 06:19:00,34.2,25.8,30.31,SW,215,0.0,0.0,71,0.00,,,0.00,Wunderground v.1.15,2013-11-11 11:19:00,
2013-11-11 06:20:00,34.2,25.8,30.31,SW,215,0.0,0.0,71,0.00,,,0.00,Wunderground v.1.15,2013-11-11 11:20:00,
2013-11-11 06:21:00,34.1,25.7,30.32,SW,214,0.0,0.0,71,0.00,,,0.00,Wunderground v.1.15,2013-11-11 11:21:00,
2013-11-11 06:22:00,34.1,25.7,30.32,SW,215,0.0,1.0,71,0.00,,,0.00,Wunderground v.1.15,2013-11-11 11:22:00,
2013-11-11 06:24:00,34.1,26.0,30.32,SW,215,0.0,1.0,72,0.00,,,0.00,Wunderground v.1.15,2013-11-11 11:24:00,
2013-11-11 06:25:00,34.0,25.9,30.32,SW,215,0.0,1.0,72,0.00,,,0.00,Wunderground v.1.15,2013-11-11 11:25:00,
2013-11-11 06:26:00,34.0,25.9,30.32,SW,215,0.0,1.0,72,0.00,,,0.00,Wunderground v.1.15,2013-11-11 11:26:00,
2013-11-11 06:27:00,33.9,25.8,30.32,SW,215,0.0,1.0,72,0.00,,,0.00,Wunderground v.1.15,2013-11-11 11:27:00,
2013-11-11 06:28:00,33.9,25.8,30.32,SW,215,0.0,1.0,72,0.00,,,0.00,Wunderground v.1.15,2013-11-11 11:28:00,
2013-11-11 06:29:00,33.9,25.8,30.32,SW,214,0.0,1.0,72,0.00,,,0.00,Wunderground v.1.15,2013-11-11 11:29:00,
2013-11-11 06:30:00,33.9,25.8,30.32,SW,214,0.0,0.0,72,0.00,,,0.00,Wunderground v.1.15,2013-11-11 11:30:00,
2013-11-11 06:31:00,33.8,25.7,30.32,SW,215,0.0,1.0,72,0.00,,,0.00,Wunderground v.1.15,2013-11-11 11:31:00,
2013-11-11 06:33:00,33.7,25.6,30.32,SW,214,0.0,1.0,72,0.00,,,0.00,Wunderground v.1.15,2013-11-11 11:33:00,
2013-11-11 06:34:00,33.7,25.6,30.32,SW,214,0.0,1.0,72,0.00,,,0.00,Wunderground v.1.15,2013-11-11 11:34:00,
2013-11-11 06:35:00,33.6,25.5,30.32,SW,215,0.0,1.0,72,0.00,,,0.00,Wunderground v.1.15,2013-11-11 11:35:00,
2013-11-11 06:36:00,33.5,25.4,30.32,N/A,-737280,0.0,-999.0,72,0.00,,,0.00,Wunderground v.1.15,2013-11-11 11:36:00,
2013-11-11 06:37:00,33.4,25.3,30.32,SW,215,0.0,1.0,72,0.00,,,0.00,Wunderground v.1.15,2013-11-11 11:37:00,
2013-11-11 06:39:00,33.3,25.6,30.32,SW,215,0.0,1.0,73,0.00,,,0.00,Wunderground v.1.15,2013-11-11 11:39:00,
2013-11-11 06:40:00,33.2,25.5,30.32,SW,215,0.0,0.0,73,0.00,,,0.00,Wunderground v.1.15,2013-11-11 11:40:00,
2013-11-11 06:41:00,33.1,25.7,30.33,SW,215,0.0,0.0,74,0.00,,,0.00,Wunderground v.1.15,2013-11-11 11:41:00,
2013-11-11 06:42:00,33.1,25.7,30.33,SW,214,0.0,0.0,74,0.00,,,0.00,Wunderground v.1.15,2013-11-11 11:42:00,
2013-11-11 06:44:00,33.0,25.6,30.33,SW,215,0.0,0.0,74,0.00,,,0.00,Wunderground v.1.15,2013-11-11 11:44:00,
2013-11-11 06:45:00,33.0,25.6,30.33,SW,215,0.0,0.0,74,0.00,,,0.00,Wunderground v.1.15,2013-11-11 11:45:00,
2013-11-11 06:46:00,32.8,25.4,30.33,SW,215,0.0,0.0,74,0.00,,,0.00,Wunderground v.1.15,2013-11-11 11:46:00,
2013-11-11 06:47:00,32.7,25.3,30.33,SW,215,0.0,0.0,74,0.00,,,0.00,Wunderground v.1.15,2013-11-11 11:47:00,
2013-11-11 06:49:00,32.7,25.6,30.33,SW,215,0.0,0.0,75,0.00,,,0.00,Wunderground v.1.15,2013-11-11 11:49:00,
2013-11-11 06:50:00,32.7,25.6,30.33,SW,215,0.0,0.0,75,0.00,,,0.00,Wunderground v.1.15,2013-11-11 11:50:00,
2013-11-11 06:51:00,32.6,25.6,30.33,SW,215,0.0,0.0,75,0.00,,,0.00,Wunderground v.1.15,2013-11-11 11:51:00,
2013-11-11 06:52:00,32.5,25.8,30.33,SW,215,0.0,0.0,76,0.00,,,0.00,Wunderground v.1.15,2013-11-11 11:52:00,
2013-11-11 06:53:00,32.6,25.9,30.33,SW,215,0.0,0.0,76,0.00,,,0.00,Wunderground v.1.15,2013-11-11 11:53:00,
2013-11-11 06:54:00,32.5,25.8,30.33,SW,215,0.0,0.0,76,0.00,,,0.00,Wunderground v.1.15,2013-11-11 11:54:00,
2013-11-11 06:55:00,32.5,25.8,30.33,SW,214,0.0,0.0,76,0.00,,,0.00,Wunderground v.1.15,2013-11-11 11:55:00,
2013-11-11 06:56:00,32.5,25.8,30.33,SW,214,0.0,0.0,76,0.00,,,0.00,Wunderground v.1.15,2013-11-11 11:56:00,
2013-11-11 06:57:00,32.4,26.0,30.33,SW,214,0.0,0.0,77,0.00,,,0.00,Wunderground v.1.15,2013-11-11 11:57:00,
2013-11-11 06:58:00,32.4,26.0,30.33,SW,214,0.0,0.0,77,0.00,,,0.00,Wunderground v.1.15,2013-11-11 11:58:00,
2013-11-11 06:59:00,32.4,26.3,30.33,SW,215,0.0,1.0,78,0.00,,,0.00,Wunderground v.1.15,2013-11-11 11:59:00,
2013-11-11 07:00:00,32.4,26.0,30.33,SW,215,0.0,0.0,77,0.00,,,0.00,Wunderground v.1.15,2013-11-11 12:00:00,
2013-11-11 07:01:00,32.4,26.0,30.33,SW,215,0.0,1.0,77,0.00,,,0.00,Wunderground v.1.15,2013-11-11 12:01:00,
2013-11-11 07:03:00,32.3,25.9,30.33,SW,215,0.0,1.0,77,0.00,,,0.00,Wunderground v.1.15,2013-11-11 12:03:00,
2013-11-11 07:05:00,32.3,26.8,30.33,SW,215,0.0,1.0,80,0.00,,,0.00,Wunderground v.1.15,2013-11-11 12:05:00,
2013-11-11 07:06:00,32.3,26.8,30.33,SW,215,0.0,1.0,80,0.00,,,0.00,Wunderground v.1.15,2013-11-11 12:06:00,
2013-11-11 07:08:00,32.2,26.4,30.33,SW,215,0.0,1.0,79,0.00,,,0.00,Wunderground v.1.15,2013-11-11 12:08:00,
2013-11-11 07:09:00,32.2,26.4,30.33,SW,215,0.0,1.0,79,0.00,,,0.00,Wunderground v.1.15,2013-11-11 12:09:00,
2013-11-11 07:10:00,32.1,26.3,30.33,SW,214,0.0,0.0,79,0.00,,,0.00,Wunderground v.1.15,2013-11-11 12:10:00,
2013-11-11 07:11:00,32.1,26.3,30.34,SW,215,0.0,0.0,79,0.00,,,0.00,Wunderground v.1.15,2013-11-11 12:11:00,
2013-11-11 07:13:00,32.0,26.5,30.34,SW,214,0.0,0.0,80,0.00,,,0.00,Wunderground v.1.15,2013-11-11 12:13:00,
2013-11-11 07:14:00,32.0,26.5,30.34,SW,215,0.0,0.0,80,0.00,,,0.00,Wunderground v.1.15,2013-11-11 12:14:00,
2013-11-11 07:15:00,31.9,26.1,30.34,SW,215,0.0,0.0,79,0.00,,,0.00,Wunderground v.1.15,2013-11-11 12:15:00,
2013-11-11 07:16:00,31.9,26.1,30.34,SW,215,0.0,0.0,79,0.00,,,0.00,Wunderground v.1.15,2013-11-11 12:16:00,
2013-11-11 07:18:00,31.7,25.9,30.34,SW,215,0.0,0.0,79,0.00,,,0.00,Wunderground v.1.15,2013-11-11 12:18:00,
2013-11-11 07:19:00,31.7,25.9,30.34,SW,214,0.0,0.0,79,0.00,,,0.00,Wunderground v.1.15,2013-11-11 12:19:00,
2013-11-11 07:20:00,31.7,25.9,30.34,SW,215,0.0,0.0,79,0.00,,,0.00,Wunderground v.1.15,2013-11-11 12:20:00,
2013-11-11 07:21:00,31.6,25.8,30.34,SW,215,0.0,0.0,79,0.00,,,0.00,Wunderground v.1.15,2013-11-11 12:21:00,
2013-11-11 07:28:00,31.4,25.9,30.35,SW,215,0.0,0.0,80,0.00,,,0.00,Wunderground v.1.15,2013-11-11 12:28:00,
2013-11-11 07:29:00,31.4,26.2,30.35,SW,214,0.0,0.0,81,0.00,,,0.00,Wunderground v.1.15,2013-11-11 12:29:00,
2013-11-11 07:33:00,31.4,26.2,30.34,SW,214,0.0,0.0,81,0.00,,,0.00,Wunderground v.1.15,2013-11-11 12:33:00,
2013-11-11 07:34:00,31.4,26.2,30.34,SW,215,0.0,0.0,81,0.00,,,0.00,Wunderground v.1.15,2013-11-11 12:34:00,
2013-11-11 07:39:00,31.4,26.5,30.35,SW,214,0.0,0.0,82,0.00,,,0.00,Wunderground v.1.15,2013-11-11 12:39:00,
2013-11-11 07:44:00,31.4,26.8,30.35,SW,215,0.0,0.0,83,0.00,,,0.00,Wunderground v.1.15,2013-11-11 12:44:00,
2013-11-11 07:49:00,31.5,26.9,30.35,SW,215,0.0,0.0,83,0.00,,,0.00,Wunderground v.1.15,2013-11-11 12:49:00,
2013-11-11 07:50:00,31.5,26.9,30.35,SW,215,0.0,0.0,83,0.00,,,0.00,Wunderground v.1.15,2013-11-11 12:50:00,
2013-11-11 07:54:00,31.5,26.9,30.35,SW,215,0.0,0.0,83,0.00,,,0.00,Wunderground v.1.15,2013-11-11 12:54:00,
2013-11-11 07:55:00,31.5,26.9,30.35,SW,214,0.0,0.0,83,0.00,,,0.00,Wunderground v.1.15,2013-11-11 12:55:00,
2013-11-11 07:56:00,31.5,26.9,30.35,SW,215,0.0,0.0,83,0.00,,,0.00,Wunderground v.1.15,2013-11-11 12:56:00,
2013-11-11 07:59:00,31.5,26.9,30.35,SW,215,0.0,0.0,83,0.00,,,0.00,Wunderground v.1.15,2013-11-11 12:59:00,
2013-11-11 08:00:00,31.5,26.9,30.35,SW,215,0.0,0.0,83,0.00,,,0.00,Wunderground v.1.15,2013-11-11 13:00:00,
2013-11-11 08:01:00,31.5,26.9,30.35,SW,214,0.0,0.0,83,0.00,,,0.00,Wunderground v.1.15,2013-11-11 13:01:00,
2013-11-11 08:04:00,31.6,27.0,30.35,SW,215,0.0,0.0,83,0.00,,,0.00,Wunderground v.1.15,2013-11-11 13:04:00,
2013-11-11 08:05:00,31.7,27.1,30.35,SW,214,0.0,0.0,83,0.00,,,0.00,Wunderground v.1.15,2013-11-11 13:05:00,
2013-11-11 08:06:00,31.7,27.1,30.35,SW,215,0.0,0.0,83,0.00,,,0.00,Wunderground v.1.15,2013-11-11 13:06:00,
2013-11-11 08:10:00,31.9,27.0,30.36,SW,214,0.0,0.0,82,0.00,,,0.00,Wunderground v.1.15,2013-11-11 13:10:00,
2013-11-11 08:11:00,31.9,27.0,30.36,SW,215,0.0,0.0,82,0.00,,,0.00,Wunderground v.1.15,2013-11-11 13:11:00,
2013-11-11 08:12:00,32.1,27.2,30.36,SW,214,0.0,0.0,82,0.00,,,0.00,Wunderground v.1.15,2013-11-11 13:12:00,
2013-11-11 08:15:00,32.6,27.7,30.36,SW,215,0.0,0.0,82,0.00,,,0.00,Wunderground v.1.15,2013-11-11 13:15:00,
2013-11-11 08:16:00,32.7,27.8,30.36,SW,215,0.0,0.0,82,0.00,,,0.00,Wunderground v.1.15,2013-11-11 13:16:00,
2013-11-11 08:17:00,32.9,28.0,30.36,SW,215,0.0,0.0,82,0.00,,,0.00,Wunderground v.1.15,2013-11-11 13:17:00,
2013-11-11 08:18:00,33.1,28.2,30.36,SW,215,0.0,0.0,82,0.00,,,0.00,Wunderground v.1.15,2013-11-11 13:18:00,
2013-11-11 08:20:00,33.3,28.1,30.36,SW,215,0.0,0.0,81,0.00,,,0.00,Wunderground v.1.15,2013-11-11 13:20:00,
2013-11-11 08:21:00,33.5,28.6,30.36,SW,215,0.0,1.0,82,0.00,,,0.00,Wunderground v.1.15,2013-11-11 13:21:00,
2013-11-11 08:22:00,33.6,29.0,30.36,SW,215,0.0,1.0,83,0.00,,,0.00,Wunderground v.1.15,2013-11-11 13:22:00,
2013-11-11 08:23:00,33.8,29.2,30.36,SW,215,0.0,1.0,83,0.00,,,0.00,Wunderground v.1.15,2013-11-11 13:23:00,
2013-11-11 08:25:00,33.9,29.3,30.36,SW,215,0.0,1.0,83,0.00,,,0.00,Wunderground v.1.15,2013-11-11 13:25:00,
2013-11-11 08:26:00,34.0,29.4,30.36,SW,215,0.0,1.0,83,0.00,,,0.00,Wunderground v.1.15,2013-11-11 13:26:00,
2013-11-11 08:27:00,34.1,29.5,30.36,SW,215,0.0,1.0,83,0.00,,,0.00,Wunderground v.1.15,2013-11-11 13:27:00,
2013-11-11 08:28:00,34.1,29.5,30.36,SW,215,0.0,1.0,83,0.00,,,0.00,Wunderground v.1.15,2013-11-11 13:28:00,
2013-11-11 08:29:00,34.1,29.5,30.36,SW,215,0.0,1.0,83,0.00,,,0.00,Wunderground v.1.15,2013-11-11 13:29:00,
2013-11-11 08:31:00,34.3,29.7,30.36,SW,215,0.0,0.0,83,0.00,,,0.00,Wunderground v.1.15,2013-11-11 13:31:00,
2013-11-11 08:32:00,34.5,29.9,30.36,SW,215,0.0,0.0,83,0.00,,,0.00,Wunderground v.1.15,2013-11-11 13:32:00,
2013-11-11 08:33:00,34.5,29.9,30.36,SW,215,0.0,0.0,83,0.00,,,0.00,Wunderground v.1.15,2013-11-11 13:33:00,
2013-11-11 08:34:00,34.8,29.9,30.36,SW,214,0.0,0.0,82,0.00,,,0.00,Wunderground v.1.15,2013-11-11 13:34:00,
2013-11-11 08:36:00,35.2,29.6,30.36,SW,215,0.0,0.0,80,0.00,,,0.00,Wunderground v.1.15,2013-11-11 13:36:00,
2013-11-11 08:38:00,35.6,29.7,30.36,SW,215,0.0,0.0,79,0.00,,,0.00,Wunderground v.1.15,2013-11-11 13:38:00,
2013-11-11 08:40:00,36.0,29.5,30.36,SW,215,0.0,0.0,77,0.00,,,0.00,Wunderground v.1.15,2013-11-11 13:40:00,
2013-11-11 08:41:00,36.2,29.4,30.36,SW,215,0.0,0.0,76,0.00,,,0.00,Wunderground v.1.15,2013-11-11 13:41:00,
2013-11-11 08:43:00,36.5,29.3,30.36,SW,215,0.0,1.0,75,0.00,,,0.00,Wunderground v.1.15,2013-11-11 13:43:00,
2013-11-11 08:44:00,36.6,29.1,30.36,SW,215,0.0,1.0,74,0.00,,,0.00,Wunderground v.1.15,2013-11-11 13:44:00,
2013-11-11 08:45:00,36.8,29.3,30.36,SW,215,0.0,1.0,74,0.00,,,0.00,Wunderground v.1.15,2013-11-11 13:45:00,
2013-11-11 08:46:00,36.9,29.4,30.36,SW,215,0.0,1.0,74,0.00,,,0.00,Wunderground v.1.15,2013-11-11 13:46:00,
2013-11-11 08:47:00,37.0,29.5,30.36,SW,215,0.0,1.0,74,0.00,,,0.00,Wunderground v.1.15,2013-11-11 13:47:00,
2013-11-11 08:48:00,37.2,29.7,30.36,SW,215,0.0,1.0,74,0.00,,,0.00,Wunderground v.1.15,2013-11-11 13:48:00,
2013-11-11 08:49:00,37.4,29.5,30.36,SW,214,0.0,1.0,73,0.00,,,0.00,Wunderground v.1.15,2013-11-11 13:49:00,
2013-11-11 08:50:00,37.6,29.7,30.36,SW,214,0.0,0.0,73,0.00,,,0.00,Wunderground v.1.15,2013-11-11 13:50:00,
2013-11-11 08:51:00,37.7,29.5,30.36,SW,215,0.0,0.0,72,0.00,,,0.00,Wunderground v.1.15,2013-11-11 13:51:00,
2013-11-11 08:52:00,37.9,29.7,30.36,SW,215,0.0,0.0,72,0.00,,,0.00,Wunderground v.1.15,2013-11-11 13:52:00,
2013-11-11 08:53:00,38.1,29.9,30.36,SW,215,0.0,0.0,72,0.00,,,0.00,Wunderground v.1.15,2013-11-11 13:53:00,
2013-11-11 08:54:00,38.2,30.0,30.36,SW,215,0.0,0.0,72,0.00,,,0.00,Wunderground v.1.15,2013-11-11 13:54:00,
2013-11-11 08:55:00,38.4,29.8,30.36,SW,215,0.0,0.0,71,0.00,,,0.00,Wunderground v.1.15,2013-11-11 13:55:00,
2013-11-11 08:56:00,38.5,29.9,30.36,SW,215,0.0,0.0,71,0.00,,,0.00,Wunderground v.1.15,2013-11-11 13:56:00,
2013-11-11 08:57:00,38.7,29.8,30.36,SW,215,0.0,0.0,70,0.00,,,0.00,Wunderground v.1.15,2013-11-11 13:57:00,
2013-11-11 08:59:00,39.1,30.1,30.36,SW,215,0.0,1.0,70,0.00,,,0.00,Wunderground v.1.15,2013-11-11 13:59:00,
2013-11-11 09:01:00,39.3,29.6,30.36,SW,215,0.0,1.0,68,0.00,,,0.00,Wunderground v.1.15,2013-11-11 14:01:00,
2013-11-11 09:03:00,39.8,30.1,30.36,SW,215,0.0,1.0,68,0.00,,,0.00,Wunderground v.1.15,2013-11-11 14:03:00,
2013-11-11 09:04:00,40.1,29.6,30.36,SW,215,0.0,1.0,66,0.00,,,0.00,Wunderground v.1.15,2013-11-11 14:04:00,
2013-11-11 09:06:00,40.3,29.8,30.36,WNW,285,0.0,2.0,66,0.00,,,0.00,Wunderground v.1.15,2013-11-11 14:06:00,
2013-11-11 09:08:00,40.7,30.2,30.36,NW,308,1.0,2.0,66,0.00,,,0.00,Wunderground v.1.15,2013-11-11 14:08:00,
2013-11-11 09:10:00,41.3,30.0,30.36,North,11,1.0,1.0,64,0.00,,,0.00,Wunderground v.1.15,2013-11-11 14:10:00,
2013-11-11 09:11:00,41.4,30.5,30.36,NNW,345,4.0,4.0,65,0.00,,,0.00,Wunderground v.1.15,2013-11-11 14:11:00,
2013-11-11 09:12:00,41.7,30.0,30.36,East,79,3.0,4.0,63,0.00,,,0.00,Wunderground v.1.15,2013-11-11 14:12:00,
2013-11-11 09:13:00,42.0,29.5,30.36,NE,38,0.0,4.0,61,0.00,,,0.00,Wunderground v.1.15,2013-11-11 14:13:00,
2013-11-11 09:15:00,42.4,29.9,30.36,NNE,32,0.0,4.0,61,0.00,,,0.00,Wunderground v.1.15,2013-11-11 14:15:00,
2013-11-11 09:16:00,42.5,30.0,30.36,NNE,32,0.0,4.0,61,0.00,,,0.00,Wunderground v.1.15,2013-11-11 14:16:00,
2013-11-11 09:17:00,42.7,30.2,30.36,NNE,32,0.0,4.0,61,0.00,,,0.00,Wunderground v.1.15,2013-11-11 14:17:00,
2013-11-11 09:18:00,42.9,30.4,30.36,NNE,32,0.0,4.0,61,0.00,,,0.00,Wunderground v.1.15,2013-11-11 14:18:00,
2013-11-11 09:19:00,42.9,30.4,30.36,NNE,31,0.0,4.0,61,0.00,,,0.00,Wunderground v.1.15,2013-11-11 14:19:00,
2013-11-11 09:20:00,43.1,30.6,30.36,NNE,32,0.0,1.0,61,0.00,,,0.00,Wunderground v.1.15,2013-11-11 14:20:00,
2013-11-11 09:21:00,43.2,30.6,30.36,NNE,32,0.0,1.0,61,0.00,,,0.00,Wunderground v.1.15,2013-11-11 14:21:00,
2013-11-11 09:22:00,43.2,30.2,30.36,NNE,32,0.0,1.0,60,0.00,,,0.00,Wunderground v.1.15,2013-11-11 14:22:00,
2013-11-11 09:24:00,43.4,30.4,30.36,NNE,31,0.0,1.0,60,0.00,,,0.00,Wunderground v.1.15,2013-11-11 14:24:00,
2013-11-11 09:26:00,43.5,30.1,30.36,NNE,32,0.0,1.0,59,0.00,,,0.00,Wunderground v.1.15,2013-11-11 14:26:00,
2013-11-11 09:27:00,43.6,30.2,30.36,NNE,25,1.0,1.0,59,0.00,,,0.00,Wunderground v.1.15,2013-11-11 14:27:00,
2013-11-11 09:29:00,43.7,29.9,30.36,NNE,25,0.0,1.0,58,0.00,,,0.00,Wunderground v.1.15,2013-11-11 14:29:00,
2013-11-11 09:30:00,43.9,30.1,30.36,NNW,333,0.0,1.0,58,0.00,,,0.00,Wunderground v.1.15,2013-11-11 14:30:00,
2013-11-11 09:31:00,44.1,30.3,30.36,NNE,15,0.0,2.0,58,0.00,,,0.00,Wunderground v.1.15,2013-11-11 14:31:00,
2013-11-11 09:32:00,44.1,30.3,30.36,NNE,16,0.0,2.0,58,0.00,,,0.00,Wunderground v.1.15,2013-11-11 14:32:00,
2013-11-11 09:33:00,44.3,30.4,30.36,NNE,16,0.0,2.0,58,0.00,,,0.00,Wunderground v.1.15,2013-11-11 14:33:00,
2013-11-11 09:34:00,44.4,30.1,30.36,NW,322,0.0,2.0,57,0.00,,,0.00,Wunderground v.1.15,2013-11-11 14:34:00,
2013-11-11 09:35:00,44.6,29.9,30.36,WSW,257,0.0,2.0,56,0.00,,,0.00,Wunderground v.1.15,2013-11-11 14:35:00,
2013-11-11 09:36:00,44.7,30.0,30.36,WSW,257,0.0,2.0,56,0.00,,,0.00,Wunderground v.1.15,2013-11-11 14:36:00,
2013-11-11 09:37:00,44.9,29.7,30.36,WSW,257,0.0,2.0,55,0.00,,,0.00,Wunderground v.1.15,2013-11-11 14:37:00,
2013-11-11 09:38:00,45.0,29.8,30.36,WSW,248,0.0,2.0,55,0.00,,,0.00,Wunderground v.1.15,2013-11-11 14:38:00,
2013-11-11 09:39:00,45.1,29.9,30.36,NNW,338,2.0,2.0,55,0.00,,,0.00,Wunderground v.1.15,2013-11-11 14:39:00,
2013-11-11 09:40:00,45.4,29.7,30.36,NNW,337,0.0,1.0,54,0.00,,,0.00,Wunderground v.1.15,2013-11-11 14:40:00,
2013-11-11 09:42:00,45.6,29.9,30.36,NE,41,1.0,1.0,54,0.00,,,0.00,Wunderground v.1.15,2013-11-11 14:42:00,
2013-11-11 09:44:00,45.9,31.1,30.36,NE,41,1.0,1.0,56,0.00,,,0.00,Wunderground v.1.15,2013-11-11 14:44:00,
2013-11-11 09:45:00,46.1,31.3,30.36,NE,41,0.0,1.0,56,0.00,,,0.00,Wunderground v.1.15,2013-11-11 14:45:00,
2013-11-11 09:46:00,46.2,30.9,30.36,NE,41,0.0,1.0,55,0.00,,,0.00,Wunderground v.1.15,2013-11-11 14:46:00,
2013-11-11 09:47:00,46.4,30.6,30.36,NE,41,0.0,1.0,54,0.00,,,0.00,Wunderground v.1.15,2013-11-11 14:47:00,
2013-11-11 09:48:00,46.5,30.7,30.36,NE,41,0.0,1.0,54,0.00,,,0.00,Wunderground v.1.15,2013-11-11 14:48:00,
2013-11-11 09:49:00,46.7,30.9,30.36,NE,41,0.0,1.0,54,0.00,,,0.00,Wunderground v.1.15,2013-11-11 14:49:00,
2013-11-11 09:50:00,46.9,30.6,30.36,SSW,195,1.0,1.0,53,0.00,,,0.00,Wunderground v.1.15,2013-11-11 14:50:00,
2013-11-11 09:52:00,47.1,30.4,30.36,SSW,195,0.0,1.0,52,0.00,,,0.00,Wunderground v.1.15,2013-11-11 14:52:00,
2013-11-11 09:53:00,47.4,30.2,30.36,SSW,195,1.0,1.0,51,0.00,,,0.00,Wunderground v.1.15,2013-11-11 14:53:00,
2013-11-11 09:54:00,47.7,30.4,30.36,SSW,196,0.0,1.0,51,0.00,,,0.00,Wunderground v.1.15,2013-11-11 14:54:00,
2013-11-11 09:55:00,47.7,30.9,30.36,SSW,195,0.0,1.0,52,0.00,,,0.00,Wunderground v.1.15,2013-11-11 14:55:00,
2013-11-11 09:56:00,47.8,31.0,30.36,SSW,204,0.0,1.0,52,0.00,,,0.00,Wunderground v.1.15,2013-11-11 14:56:00,
2013-11-11 09:57:00,48.0,30.2,30.36,SE,142,2.0,2.0,50,0.00,,,0.00,Wunderground v.1.15,2013-11-11 14:57:00,
2013-11-11 09:58:00,48.2,30.4,30.36,SE,143,1.0,2.0,50,0.00,,,0.00,Wunderground v.1.15,2013-11-11 14:58:00,
2013-11-11 10:00:00,48.4,30.6,30.36,ESE,113,1.0,1.0,50,0.00,,,0.00,Wunderground v.1.15,2013-11-11 15:00:00,
2013-11-11 10:01:00,48.5,30.2,30.36,SSW,207,0.0,1.0,49,0.00,,,0.00,Wunderground v.1.15,2013-11-11 15:01:00,
2013-11-11 10:02:00,48.6,30.3,30.36,SE,136,0.0,1.0,49,0.00,,,0.00,Wunderground v.1.15,2013-11-11 15:02:00,
2013-11-11 10:03:00,48.6,29.3,30.36,ESE,116,0.0,1.0,47,0.00,,,0.00,Wunderground v.1.15,2013-11-11 15:03:00,
2013-11-11 10:04:00,48.7,29.4,30.36,ESE,110,1.0,1.0,47,0.00,,,0.00,Wunderground v.1.15,2013-11-11 15:04:00,
2013-11-11 10:05:00,48.8,30.0,30.36,ESE,113,1.0,1.0,48,0.00,,,0.00,Wunderground v.1.15,2013-11-11 15:05:00,
2013-11-11 10:06:00,48.9,30.1,30.36,NW,322,1.0,1.0,48,0.00,,,0.00,Wunderground v.1.15,2013-11-11 15:06:00,
2013-11-11 10:07:00,48.9,30.1,30.36,NW,324,0.0,1.0,48,0.00,,,0.00,Wunderground v.1.15,2013-11-11 15:07:00,
2013-11-11 10:08:00,49.1,30.2,30.36,NE,41,1.0,2.0,48,0.00,,,0.00,Wunderground v.1.15,2013-11-11 15:08:00,
2013-11-11 10:09:00,49.1,30.2,30.36,NE,41,1.0,2.0,48,0.00,,,0.00,Wunderground v.1.15,2013-11-11 15:09:00,
2013-11-11 10:10:00,49.2,30.3,30.36,ENE,57,2.0,2.0,48,0.00,,,0.00,Wunderground v.1.15,2013-11-11 15:10:00,
2013-11-11 10:11:00,49.2,29.8,30.36,ENE,57,0.0,2.0,47,0.00,,,0.00,Wunderground v.1.15,2013-11-11 15:11:00,
2013-11-11 10:12:00,49.3,29.9,30.36,NW,319,1.0,2.0,47,0.00,,,0.00,Wunderground v.1.15,2013-11-11 15:12:00,
2013-11-11 10:13:00,49.4,30.0,30.36,NNE,20,0.0,2.0,47,0.00,,,0.00,Wunderground v.1.15,2013-11-11 15:13:00,
2013-11-11 10:14:00,49.4,30.5,30.36,NE,39,1.0,2.0,48,0.00,,,0.00,Wunderground v.1.15,2013-11-11 15:14:00,
2013-11-11 10:15:00,49.5,30.6,30.36,NNE,14,2.0,3.0,48,0.00,,,0.00,Wunderground v.1.15,2013-11-11 15:15:00,
2013-11-11 10:16:00,49.6,30.2,30.36,West,278,1.0,3.0,47,0.00,,,0.00,Wunderground v.1.15,2013-11-11 15:16:00,
2013-11-11 10:17:00,49.6,30.2,30.36,ENE,77,1.0,3.0,47,0.00,,,0.00,Wunderground v.1.15,2013-11-11 15:17:00,
2013-11-11 10:18:00,49.6,29.6,30.36,ENE,71,2.0,3.0,46,0.00,,,0.00,Wunderground v.1.15,2013-11-11 15:18:00,
2013-11-11 10:19:00,49.6,29.6,30.36,NE,55,1.0,3.0,46,0.00,,,0.00,Wunderground v.1.15,2013-11-11 15:19:00,
2013-11-11 10:20:00,49.6,29.6,30.36,NE,56,1.0,1.0,46,0.00,,,0.00,Wunderground v.1.15,2013-11-11 15:20:00,
2013-11-11 10:22:00,49.6,29.1,30.36,ENE,66,1.0,2.0,45,0.00,,,0.00,Wunderground v.1.15,2013-11-11 15:22:00,
2013-11-11 10:23:00,49.7,29.7,30.36,WNW,298,2.0,2.0,46,0.00,,,0.00,Wunderground v.1.15,2013-11-11 15:23:00,
2013-11-11 10:24:00,49.7,29.7,30.36,North,352,2.0,2.0,46,0.00,,,0.00,Wunderground v.1.15,2013-11-11 15:24:00,
2013-11-11 10:25:00,49.8,29.8,30.36,ENE,60,2.0,3.0,46,0.00,,,0.00,Wunderground v.1.15,2013-11-11 15:25:00,
2013-11-11 10:26:00,49.9,29.4,30.36,NNW,340,2.0,3.0,45,0.00,,,0.00,Wunderground v.1.15,2013-11-11 15:26:00,
2013-11-11 10:27:00,50.0,30.0,30.36,NNW,348,3.0,3.0,46,0.00,,,0.00,Wunderground v.1.15,2013-11-11 15:27:00,
2013-11-11 10:29:00,50.2,29.7,30.36,NNW,348,0.0,3.0,45,0.00,,,0.00,Wunderground v.1.15,2013-11-11 15:29:00,
2013-11-11 10:30:00,50.2,29.1,30.36,ENE,58,2.0,2.0,44,0.00,,,0.00,Wunderground v.1.15,2013-11-11 15:30:00,
2013-11-11 10:31:00,50.3,28.6,30.35,WNW,297,2.0,2.0,43,0.00,,,0.00,Wunderground v.1.15,2013-11-11 15:31:00,
2013-11-11 10:32:00,50.3,29.7,30.35,NE,52,0.0,2.0,45,0.00,,,0.00,Wunderground v.1.15,2013-11-11 15:32:00,
2013-11-11 10:34:00,50.4,29.8,30.35,NE,41,1.0,2.0,45,0.00,,,0.00,Wunderground v.1.15,2013-11-11 15:34:00,
2013-11-11 10:35:00,50.4,29.3,30.35,NW,323,4.0,4.0,44,0.00,,,0.00,Wunderground v.1.15,2013-11-11 15:35:00,
2013-11-11 10:36:00,50.4,28.7,30.35,NNW,332,4.0,4.0,43,0.00,,,0.00,Wunderground v.1.15,2013-11-11 15:36:00,
2013-11-11 10:38:00,50.6,29.5,30.35,SW,222,0.0,4.0,44,0.00,,,0.00,Wunderground v.1.15,2013-11-11 15:38:00,
2013-11-11 10:39:00,50.6,29.5,30.35,NW,315,1.0,4.0,44,0.00,,,0.00,Wunderground v.1.15,2013-11-11 15:39:00,
2013-11-11 10:40:00,50.7,29.0,30.35,SE,140,0.0,2.0,43,0.00,,,0.00,Wunderground v.1.15,2013-11-11 15:40:00,
2013-11-11 10:41:00,50.8,28.5,30.35,South,188,2.0,4.0,42,0.00,,,0.00,Wunderground v.1.15,2013-11-11 15:41:00,
2013-11-11 10:44:00,50.8,28.5,30.35,NNE,13,2.0,4.0,42,0.00,,,0.00,Wunderground v.1.15,2013-11-11 15:44:00,
2013-11-11 10:45:00,50.9,28.6,30.35,NNE,32,0.0,4.0,42,0.00,,,0.00,Wunderground v.1.15,2013-11-11 15:45:00,
2013-11-11 10:46:00,50.9,28.6,30.35,NNW,346,1.0,4.0,42,0.00,,,0.00,Wunderground v.1.15,2013-11-11 15:46:00,
2013-11-11 10:49:00,51.2,29.4,30.35,NNW,345,0.0,4.0,43,0.00,,,0.00,Wunderground v.1.15,2013-11-11 15:49:00,
2013-11-11 10:50:00,51.3,29.5,30.35,NNE,20,0.0,1.0,43,0.00,,,0.00,Wunderground v.1.15,2013-11-11 15:50:00,
2013-11-11 10:51:00,51.5,30.3,30.35,NNE,23,2.0,2.0,44,0.00,,,0.00,Wunderground v.1.15,2013-11-11 15:51:00,
2013-11-11 10:52:00,51.5,30.3,30.35,East,89,1.0,2.0,44,0.00,,,0.00,Wunderground v.1.15,2013-11-11 15:52:00,
2013-11-11 10:54:00,51.8,29.4,30.35,SSW,207,1.0,2.0,42,0.00,,,0.00,Wunderground v.1.15,2013-11-11 15:54:00,
2013-11-11 10:55:00,51.9,28.3,30.35,WSW,255,0.0,2.0,40,0.00,,,0.00,Wunderground v.1.15,2013-11-11 15:55:00,
2013-11-11 10:56:00,52.0,28.4,30.35,NW,319,2.0,2.0,40,0.00,,,0.00,Wunderground v.1.15,2013-11-11 15:56:00,
2013-11-11 10:57:00,52.1,28.5,30.35,West,281,1.0,2.0,40,0.00,,,0.00,Wunderground v.1.15,2013-11-11 15:57:00,
2013-11-11 10:59:00,52.2,28.6,30.35,WSW,253,4.0,4.0,40,0.00,,,0.00,Wunderground v.1.15,2013-11-11 15:59:00,
2013-11-11 11:00:00,52.1,27.9,30.35,WSW,256,0.0,1.0,39,0.00,,,0.00,Wunderground v.1.15,2013-11-11 16:00:00,
2013-11-11 11:01:00,52.1,27.9,30.35,SE,137,1.0,1.0,39,0.00,,,0.00,Wunderground v.1.15,2013-11-11 16:01:00,
2013-11-11 11:02:00,52.1,28.5,30.35,ESE,122,0.0,1.0,40,0.00,,,0.00,Wunderground v.1.15,2013-11-11 16:02:00,
2013-11-11 11:05:00,52.4,29.4,30.35,NE,42,1.0,4.0,41,0.00,,,0.00,Wunderground v.1.15,2013-11-11 16:05:00,
2013-11-11 11:06:00,52.4,28.1,30.35,North,359,1.0,4.0,39,0.00,,,0.00,Wunderground v.1.15,2013-11-11 16:06:00,
2013-11-11 11:07:00,52.6,28.3,30.35,NE,56,2.0,5.0,39,0.00,,,0.00,Wunderground v.1.15,2013-11-11 16:07:00,
2013-11-11 11:08:00,52.7,29.0,30.35,WNW,288,2.0,5.0,40,0.00,,,0.00,Wunderground v.1.15,2013-11-11 16:08:00,
2013-11-11 11:10:00,52.8,28.5,30.35,East,88,1.0,2.0,39,0.00,,,0.00,Wunderground v.1.15,2013-11-11 16:10:00,
2013-11-11 11:11:00,52.8,28.5,30.35,North,8,0.0,4.0,39,0.00,,,0.00,Wunderground v.1.15,2013-11-11 16:11:00,
2013-11-11 11:12:00,52.8,28.5,30.35,West,263,0.0,4.0,39,0.00,,,0.00,Wunderground v.1.15,2013-11-11 16:12:00,
2013-11-11 11:13:00,52.8,28.5,30.35,West,262,0.0,4.0,39,0.00,,,0.00,Wunderground v.1.15,2013-11-11 16:13:00,
2013-11-11 11:15:00,52.9,28.6,30.35,ENE,70,2.0,4.0,39,0.00,,,0.00,Wunderground v.1.15,2013-11-11 16:15:00,
2013-11-11 11:16:00,52.9,28.6,30.35,ENE,72,2.0,4.0,39,0.00,,,0.00,Wunderground v.1.15,2013-11-11 16:16:00,
2013-11-11 11:18:00,52.8,29.1,30.34,North,8,1.0,4.0,40,0.00,,,0.00,Wunderground v.1.15,2013-11-11 16:18:00,
2013-11-11 11:19:00,52.8,29.1,30.34,SSW,203,1.0,4.0,40,0.00,,,0.00,Wunderground v.1.15,2013-11-11 16:19:00,
2013-11-11 11:21:00,52.9,28.6,30.34,North,360,1.0,3.0,39,0.00,,,0.00,Wunderground v.1.15,2013-11-11 16:21:00,
2013-11-11 11:22:00,52.9,28.6,30.34,NE,39,2.0,3.0,39,0.00,,,0.00,Wunderground v.1.15,2013-11-11 16:22:00,
2013-11-11 11:23:00,53.0,28.0,30.34,North,359,1.0,3.0,38,0.00,,,0.00,Wunderground v.1.15,2013-11-11 16:23:00,
2013-11-11 11:24:00,53.1,28.1,30.34,West,264,1.0,3.0,38,0.00,,,0.00,Wunderground v.1.15,2013-11-11 16:24:00,
2013-11-11 11:26:00,53.1,28.8,30.34,NE,44,1.0,3.0,39,0.00,,,0.00,Wunderground v.1.15,2013-11-11 16:26:00,
2013-11-11 11:27:00,53.1,28.1,30.34,NE,44,1.0,3.0,38,0.00,,,0.00,Wunderground v.1.15,2013-11-11 16:27:00,
2013-11-11 11:29:00,53.2,28.9,30.33,NNE,33,2.0,3.0,39,0.00,,,0.00,Wunderground v.1.15,2013-11-11 16:29:00,
2013-11-11 11:31:00,53.3,27.7,30.33,SE,142,2.0,2.0,37,0.00,,,0.00,Wunderground v.1.15,2013-11-11 16:31:00,
2013-11-11 11:32:00,53.3,27.7,30.33,ESE,102,1.0,2.0,37,0.00,,,0.00,Wunderground v.1.15,2013-11-11 16:32:00,
2013-11-11 11:34:00,53.2,27.6,30.33,North,355,1.0,4.0,37,0.00,,,0.00,Wunderground v.1.15,2013-11-11 16:34:00,
2013-11-11 11:36:00,53.2,27.6,30.33,SE,146,1.0,4.0,37,0.00,,,0.00,Wunderground v.1.15,2013-11-11 16:36:00,
2013-11-11 11:37:00,53.2,27.6,30.33,SSW,193,1.0,4.0,37,0.00,,,0.00,Wunderground v.1.15,2013-11-11 16:37:00,
2013-11-11 11:39:00,53.3,28.3,30.33,ENE,64,1.0,4.0,38,0.00,,,0.00,Wunderground v.1.15,2013-11-11 16:39:00,
2013-11-11 11:40:00,53.3,28.3,30.33,NW,319,3.0,3.0,38,0.00,,,0.00,Wunderground v.1.15,2013-11-11 16:40:00,
2013-11-11 11:41:00,53.5,27.8,30.33,NNW,333,0.0,3.0,37,0.00,,,0.00,Wunderground v.1.15,2013-11-11 16:41:00,
2013-11-11 11:42:00,53.5,27.8,30.33,NNW,342,1.0,3.0,37,0.00,,,0.00,Wunderground v.1.15,2013-11-11 16:42:00,
2013-11-11 11:45:00,53.7,27.4,30.33,NW,324,0.0,5.0,36,0.00,,,0.00,Wunderground v.1.15,2013-11-11 16:45:00,
2013-11-11 11:47:00,53.7,27.4,30.33,WNW,297,2.0,5.0,36,0.00,,,0.00,Wunderground v.1.15,2013-11-11 16:47:00,
2013-11-11 11:50:00,53.6,27.9,30.33,NE,41,1.0,1.0,37,0.00,,,0.00,Wunderground v.1.15,2013-11-11 16:50:00,
2013-11-11 11:52:00,53.5,27.8,30.32,West,266,0.0,1.0,37,0.00,,,0.00,Wunderground v.1.15,2013-11-11 16:52:00,
2013-11-11 11:55:00,53.4,27.8,30.32,NE,36,3.0,3.0,37,0.00,,,0.00,Wunderground v.1.15,2013-11-11 16:55:00,
2013-11-11 11:57:00,53.4,27.1,30.32,NNE,20,0.0,3.0,36,0.00,,,0.00,Wunderground v.1.15,2013-11-11 16:57:00,
2013-11-11 11:58:00,53.4,27.8,30.32,NNE,20,0.0,3.0,37,0.00,,,0.00,Wunderground v.1.15,2013-11-11 16:58:00,
2013-11-11 12:00:00,53.4,28.4,30.32,NNE,20,0.0,1.0,38,0.00,,,0.00,Wunderground v.1.15,2013-11-11 17:00:00,
2013-11-11 12:01:00,53.4,28.4,30.32,North,1,1.0,1.0,38,0.00,,,0.00,Wunderground v.1.15,2013-11-11 17:01:00,
2013-11-11 12:02:00,53.5,28.5,30.32,NW,321,0.0,1.0,38,0.00,,,0.00,Wunderground v.1.15,2013-11-11 17:02:00,
2013-11-11 12:03:00,53.6,28.6,30.32,NW,321,0.0,1.0,38,0.00,,,0.00,Wunderground v.1.15,2013-11-11 17:03:00,
2013-11-11 12:04:00,53.7,28.7,30.31,SE,128,1.0,1.0,38,0.00,,,0.00,Wunderground v.1.15,2013-11-11 17:04:00,
2013-11-11 12:06:00,53.9,30.1,30.31,SE,128,1.0,1.0,40,0.00,,,0.00,Wunderground v.1.15,2013-11-11 17:06:00,
2013-11-11 12:07:00,54.0,28.3,30.31,ENE,70,1.0,2.0,37,0.00,,,0.00,Wunderground v.1.15,2013-11-11 17:07:00,
2013-11-11 12:09:00,54.0,28.3,30.31,ENE,61,0.0,2.0,37,0.00,,,0.00,Wunderground v.1.15,2013-11-11 17:09:00,
2013-11-11 12:10:00,54.0,28.3,30.31,ENE,61,0.0,1.0,37,0.00,,,0.00,Wunderground v.1.15,2013-11-11 17:10:00,
2013-11-11 12:11:00,54.1,28.4,30.31,East,79,1.0,1.0,37,0.00,,,0.00,Wunderground v.1.15,2013-11-11 17:11:00,
2013-11-11 12:12:00,54.2,29.1,30.31,ENE,69,2.0,2.0,38,0.00,,,0.00,Wunderground v.1.15,2013-11-11 17:12:00,
2013-11-11 12:13:00,54.2,29.1,30.31,ENE,63,2.0,2.0,38,0.00,,,0.00,Wunderground v.1.15,2013-11-11 17:13:00,
2013-11-11 12:14:00,54.4,28.6,30.31,North,3,3.0,3.0,37,0.00,,,0.00,Wunderground v.1.15,2013-11-11 17:14:00,
2013-11-11 12:15:00,54.5,28.7,30.30,NE,35,1.0,3.0,37,0.00,,,0.00,Wunderground v.1.15,2013-11-11 17:15:00,
2013-11-11 12:16:00,54.5,28.1,30.30,NNE,28,1.0,3.0,36,0.00,,,0.00,Wunderground v.1.15,2013-11-11 17:16:00,
2013-11-11 12:17:00,54.5,28.1,30.30,WNW,302,1.0,3.0,36,0.00,,,0.00,Wunderground v.1.15,2013-11-11 17:17:00,
2013-11-11 12:18:00,54.5,28.1,30.30,WNW,302,0.0,3.0,36,0.00,,,0.00,Wunderground v.1.15,2013-11-11 17:18:00,
2013-11-11 12:19:00,54.4,28.0,30.30,East,83,2.0,4.0,36,0.00,,,0.00,Wunderground v.1.15,2013-11-11 17:19:00,
2013-11-11 12:21:00,54.3,27.9,30.30,WSW,245,2.0,2.0,36,0.00,,,0.00,Wunderground v.1.15,2013-11-11 17:21:00,
2013-11-11 12:22:00,54.3,28.6,30.30,WNW,293,1.0,2.0,37,0.00,,,0.00,Wunderground v.1.15,2013-11-11 17:22:00,
2013-11-11 12:23:00,54.3,28.6,30.30,NW,322,2.0,2.0,37,0.00,,,0.00,Wunderground v.1.15,2013-11-11 17:23:00,
2013-11-11 12:25:00,54.4,28.0,30.30,SW,229,0.0,3.0,36,0.00,,,0.00,Wunderground v.1.15,2013-11-11 17:25:00,
2013-11-11 12:26:00,54.3,27.9,30.30,SW,229,0.0,3.0,36,0.00,,,0.00,Wunderground v.1.15,2013-11-11 17:26:00,
2013-11-11 12:27:00,54.3,27.9,30.30,West,276,1.0,3.0,36,0.00,,,0.00,Wunderground v.1.15,2013-11-11 17:27:00,
2013-11-11 12:28:00,54.4,29.3,30.30,WNW,290,1.0,3.0,38,0.00,,,0.00,Wunderground v.1.15,2013-11-11 17:28:00,
2013-11-11 12:30:00,54.7,28.9,30.30,North,359,2.0,3.0,37,0.00,,,0.00,Wunderground v.1.15,2013-11-11 17:30:00,
2013-11-11 12:31:00,54.7,28.9,30.30,NNE,16,1.0,3.0,37,0.00,,,0.00,Wunderground v.1.15,2013-11-11 17:31:00,
2013-11-11 12:32:00,54.8,29.0,30.30,NW,308,2.0,3.0,37,0.00,,,0.00,Wunderground v.1.15,2013-11-11 17:32:00,
2013-11-11 12:33:00,54.9,29.1,30.30,ENE,57,3.0,3.0,37,0.00,,,0.00,Wunderground v.1.15,2013-11-11 17:33:00,
2013-11-11 12:34:00,54.9,27.7,30.29,East,79,2.0,3.0,35,0.00,,,0.00,Wunderground v.1.15,2013-11-11 17:34:00,
2013-11-11 12:35:00,54.9,28.4,30.29,ENE,70,2.0,3.0,36,0.00,,,0.00,Wunderground v.1.15,2013-11-11 17:35:00,
2013-11-11 12:36:00,54.9,28.4,30.29,East,81,2.0,3.0,36,0.00,,,0.00,Wunderground v.1.15,2013-11-11 17:36:00,
2013-11-11 12:37:00,54.9,28.4,30.29,East,79,1.0,3.0,36,0.00,,,0.00,Wunderground v.1.15,2013-11-11 17:37:00,
2013-11-11 12:38:00,54.8,29.0,30.29,East,84,1.0,3.0,37,0.00,,,0.00,Wunderground v.1.15,2013-11-11 17:38:00,
2013-11-11 12:39:00,54.8,27.6,30.29,SE,131,0.0,3.0,35,0.00,,,0.00,Wunderground v.1.15,2013-11-11 17:39:00,
2013-11-11 12:41:00,54.7,28.2,30.29,SE,131,0.0,2.0,36,0.00,,,0.00,Wunderground v.1.15,2013-11-11 17:41:00,
2013-11-11 12:42:00,54.8,28.3,30.29,NW,305,0.0,2.0,36,0.00,,,0.00,Wunderground v.1.15,2013-11-11 17:42:00,
2013-11-11 12:43:00,54.8,28.3,30.29,NW,304,0.0,2.0,36,0.00,,,0.00,Wunderground v.1.15,2013-11-11 17:43:00,
2013-11-11 12:44:00,54.8,28.3,30.28,NW,305,0.0,2.0,36,0.00,,,0.00,Wunderground v.1.15,2013-11-11 17:44:00,
2013-11-11 12:46:00,54.9,28.4,30.28,NNW,328,0.0,2.0,36,0.00,,,0.00,Wunderground v.1.15,2013-11-11 17:46:00,
2013-11-11 12:47:00,55.0,27.8,30.28,West,273,1.0,2.0,35,0.00,,,0.00,Wunderground v.1.15,2013-11-11 17:47:00,
2013-11-11 12:48:00,55.0,27.8,30.28,West,273,1.0,2.0,35,0.00,,,0.00,Wunderground v.1.15,2013-11-11 17:48:00,
2013-11-11 12:49:00,55.1,27.9,30.28,WNW,292,1.0,2.0,35,0.00,,,0.00,Wunderground v.1.15,2013-11-11 17:49:00,
2013-11-11 12:51:00,55.1,28.6,30.28,East,81,1.0,2.0,36,0.00,,,0.00,Wunderground v.1.15,2013-11-11 17:51:00,
2013-11-11 12:52:00,55.1,27.9,30.28,SW,229,1.0,2.0,35,0.00,,,0.00,Wunderground v.1.15,2013-11-11 17:52:00,
2013-11-11 12:53:00,55.1,28.6,30.28,SW,229,0.0,2.0,36,0.00,,,0.00,Wunderground v.1.15,2013-11-11 17:53:00,
2013-11-11 12:54:00,55.2,28.0,30.28,NE,37,2.0,3.0,35,0.00,,,0.00,Wunderground v.1.15,2013-11-11 17:54:00,
2013-11-11 12:56:00,55.1,27.2,30.28,WNW,292,3.0,3.0,34,0.00,,,0.00,Wunderground v.1.15,2013-11-11 17:56:00,
2013-11-11 12:58:00,55.1,27.2,30.28,NNW,346,3.0,5.0,34,0.00,,,0.00,Wunderground v.1.15,2013-11-11 17:58:00,
2013-11-11 13:00:00,55.0,27.8,30.28,NNW,335,1.0,2.0,35,0.00,,,0.00,Wunderground v.1.15,2013-11-11 18:00:00,
2013-11-11 13:02:00,55.1,27.9,30.28,West,264,1.0,3.0,35,0.00,,,0.00,Wunderground v.1.15,2013-11-11 18:02:00,
2013-11-11 13:03:00,55.1,27.9,30.28,ENE,64,1.0,3.0,35,0.00,,,0.00,Wunderground v.1.15,2013-11-11 18:03:00,
2013-11-11 13:04:00,55.1,27.9,30.27,ENE,64,1.0,3.0,35,0.00,,,0.00,Wunderground v.1.15,2013-11-11 18:04:00,
2013-11-11 13:05:00,55.1,27.2,30.27,NE,43,1.0,3.0,34,0.00,,,0.00,Wunderground v.1.15,2013-11-11 18:05:00,
2013-11-11 13:07:00,55.1,27.2,30.27,SSE,157,2.0,3.0,34,0.00,,,0.00,Wunderground v.1.15,2013-11-11 18:07:00,
2013-11-11 13:08:00,55.1,27.2,30.27,SSE,165,0.0,3.0,34,0.00,,,0.00,Wunderground v.1.15,2013-11-11 18:08:00,
2013-11-11 13:09:00,55.1,27.2,30.27,SSE,165,0.0,3.0,34,0.00,,,0.00,Wunderground v.1.15,2013-11-11 18:09:00,
2013-11-11 13:10:00,55.0,27.1,30.27,West,264,1.0,4.0,34,0.00,,,0.00,Wunderground v.1.15,2013-11-11 18:10:00,
2013-11-11 13:11:00,55.0,27.1,30.27,West,270,2.0,4.0,34,0.00,,,0.00,Wunderground v.1.15,2013-11-11 18:11:00,
2013-11-11 13:12:00,55.0,27.1,30.27,SSW,203,1.0,4.0,34,0.00,,,0.00,Wunderground v.1.15,2013-11-11 18:12:00,
2013-11-11 13:14:00,54.9,27.7,30.27,South,172,1.0,4.0,35,0.00,,,0.00,Wunderground v.1.15,2013-11-11 18:14:00,
2013-11-11 13:15:00,54.9,27.0,30.27,SSE,162,2.0,4.0,34,0.00,,,0.00,Wunderground v.1.15,2013-11-11 18:15:00,
2013-11-11 13:16:00,54.9,27.0,30.27,SSE,158,2.0,4.0,34,0.00,,,0.00,Wunderground v.1.15,2013-11-11 18:16:00,
2013-11-11 13:17:00,54.9,27.0,30.27,ENE,77,3.0,4.0,34,0.00,,,0.00,Wunderground v.1.15,2013-11-11 18:17:00,
2013-11-11 13:19:00,54.9,27.7,30.26,NNE,20,2.0,4.0,35,0.00,,,0.00,Wunderground v.1.15,2013-11-11 18:19:00,
2013-11-11 13:20:00,54.9,27.0,30.26,NE,41,1.0,2.0,34,0.00,,,0.00,Wunderground v.1.15,2013-11-11 18:20:00,
2013-11-11 13:21:00,54.9,27.7,30.26,NE,41,0.0,2.0,35,0.00,,,0.00,Wunderground v.1.15,2013-11-11 18:21:00,
2013-11-11 13:22:00,55.0,27.8,30.26,NE,49,0.0,2.0,35,0.00,,,0.00,Wunderground v.1.15,2013-11-11 18:22:00,
2013-11-11 13:24:00,55.1,27.9,30.26,ESE,113,2.0,2.0,35,0.00,,,0.00,Wunderground v.1.15,2013-11-11 18:24:00,
2013-11-11 13:25:00,55.2,27.3,30.26,East,84,1.0,3.0,34,0.00,,,0.00,Wunderground v.1.15,2013-11-11 18:25:00,
2013-11-11 13:26:00,55.2,27.3,30.26,East,83,0.0,3.0,34,0.00,,,0.00,Wunderground v.1.15,2013-11-11 18:26:00,
2013-11-11 13:27:00,55.2,27.3,30.25,East,83,0.0,3.0,34,0.00,,,0.00,Wunderground v.1.15,2013-11-11 18:27:00,
2013-11-11 13:29:00,55.3,27.4,30.26,East,84,0.0,3.0,34,0.00,,,0.00,Wunderground v.1.15,2013-11-11 18:29:00,
2013-11-11 13:30:00,55.4,27.5,30.25,West,262,3.0,3.0,34,0.00,,,0.00,Wunderground v.1.15,2013-11-11 18:30:00,
2013-11-11 13:31:00,55.4,27.5,30.25,WNW,293,2.0,5.0,34,0.00,,,0.00,Wunderground v.1.15,2013-11-11 18:31:00,
2013-11-11 13:32:00,55.5,27.6,30.25,WSW,253,2.0,5.0,34,0.00,,,0.00,Wunderground v.1.15,2013-11-11 18:32:00,
2013-11-11 13:33:00,55.5,27.6,30.25,WSW,252,1.0,5.0,34,0.00,,,0.00,Wunderground v.1.15,2013-11-11 18:33:00,
2013-11-11 13:35:00,55.6,28.4,30.25,SW,226,1.0,5.0,35,0.00,,,0.00,Wunderground v.1.15,2013-11-11 18:35:00,
2013-11-11 13:36:00,55.7,29.1,30.25,WSW,239,0.0,5.0,36,0.00,,,0.00,Wunderground v.1.15,2013-11-11 18:36:00,
2013-11-11 13:37:00,55.8,29.2,30.25,WSW,239,1.0,5.0,36,0.00,,,0.00,Wunderground v.1.15,2013-11-11 18:37:00,
2013-11-11 13:39:00,55.9,28.6,30.24,ESE,108,1.0,5.0,35,0.00,,,0.00,Wunderground v.1.15,2013-11-11 18:39:00,
2013-11-11 13:40:00,56.1,28.8,30.24,ESE,108,0.0,1.0,35,0.00,,,0.00,Wunderground v.1.15,2013-11-11 18:40:00,
2013-11-11 13:41:00,56.2,28.9,30.24,ESE,107,0.0,1.0,35,0.00,,,0.00,Wunderground v.1.15,2013-11-11 18:41:00,
2013-11-11 13:43:00,56.3,28.3,30.24,SE,142,0.0,1.0,34,0.00,,,0.00,Wunderground v.1.15,2013-11-11 18:43:00,
2013-11-11 13:44:00,56.4,28.3,30.24,SE,142,0.0,1.0,34,0.00,,,0.00,Wunderground v.1.15,2013-11-11 18:44:00,
2013-11-11 13:45:00,56.4,28.3,30.24,NNE,20,2.0,2.0,34,0.00,,,0.00,Wunderground v.1.15,2013-11-11 18:45:00,
2013-11-11 13:46:00,56.4,29.1,30.24,NNE,18,3.0,4.0,35,0.00,,,0.00,Wunderground v.1.15,2013-11-11 18:46:00,
2013-11-11 13:47:00,56.4,27.6,30.24,NNE,19,1.0,4.0,33,0.00,,,0.00,Wunderground v.1.15,2013-11-11 18:47:00,
2013-11-11 13:48:00,56.4,26.9,30.24,NNE,25,2.0,4.0,32,0.00,,,0.00,Wunderground v.1.15,2013-11-11 18:48:00,
2013-11-11 13:50:00,56.2,27.4,30.24,NNW,342,2.0,2.0,33,0.00,,,0.00,Wunderground v.1.15,2013-11-11 18:50:00,
2013-11-11 13:51:00,56.2,27.4,30.23,NW,317,2.0,2.0,33,0.00,,,0.00,Wunderground v.1.15,2013-11-11 18:51:00,
2013-11-11 13:52:00,56.1,27.4,30.23,East,79,1.0,3.0,33,0.00,,,0.00,Wunderground v.1.15,2013-11-11 18:52:00,
2013-11-11 13:53:00,56.2,27.4,30.23,East,79,1.0,3.0,33,0.00,,,0.00,Wunderground v.1.15,2013-11-11 18:53:00,
2013-11-11 13:55:00,56.3,28.3,30.23,East,79,0.0,3.0,34,0.00,,,0.00,Wunderground v.1.15,2013-11-11 18:55:00,
2013-11-11 13:56:00,56.3,28.3,30.23,East,79,0.0,3.0,34,0.00,,,0.00,Wunderground v.1.15,2013-11-11 18:56:00,
2013-11-11 13:58:00,56.4,28.3,30.23,SE,136,0.0,3.0,34,0.00,,,0.00,Wunderground v.1.15,2013-11-11 18:58:00,
2013-11-11 13:59:00,56.4,28.3,30.23,SE,136,0.0,3.0,34,0.00,,,0.00,Wunderground v.1.15,2013-11-11 18:59:00,
2013-11-11 14:00:00,56.5,29.1,30.23,NNE,25,1.0,3.0,35,0.00,,,0.00,Wunderground v.1.15,2013-11-11 19:00:00,
2013-11-11 14:01:00,56.5,28.4,30.23,NW,307,1.0,3.0,34,0.00,,,0.00,Wunderground v.1.15,2013-11-11 19:01:00,
2013-11-11 14:03:00,56.6,27.8,30.23,North,6,1.0,3.0,33,0.00,,,0.00,Wunderground v.1.15,2013-11-11 19:03:00,
2013-11-11 14:04:00,56.6,27.8,30.23,ENE,76,1.0,3.0,33,0.00,,,0.00,Wunderground v.1.15,2013-11-11 19:04:00,
2013-11-11 14:06:00,56.6,28.5,30.23,East,79,1.0,3.0,34,0.00,,,0.00,Wunderground v.1.15,2013-11-11 19:06:00,
2013-11-11 14:09:00,56.6,27.8,30.23,SW,229,0.0,3.0,33,0.00,,,0.00,Wunderground v.1.15,2013-11-11 19:09:00,
2013-11-11 14:11:00,56.5,28.4,30.23,SW,235,2.0,2.0,34,0.00,,,0.00,Wunderground v.1.15,2013-11-11 19:11:00,
2013-11-11 14:12:00,56.5,27.7,30.23,SW,234,0.0,2.0,33,0.00,,,0.00,Wunderground v.1.15,2013-11-11 19:12:00,
2013-11-11 14:14:00,56.5,28.4,30.23,SW,235,0.0,2.0,34,0.00,,,0.00,Wunderground v.1.15,2013-11-11 19:14:00,
2013-11-11 14:15:00,56.5,28.4,30.23,SW,234,0.0,2.0,34,0.00,,,0.00,Wunderground v.1.15,2013-11-11 19:15:00,
2013-11-11 14:16:00,56.4,28.3,30.22,SW,235,1.0,2.0,34,0.00,,,0.00,Wunderground v.1.15,2013-11-11 19:16:00,
2013-11-11 14:17:00,56.5,29.1,30.22,SW,235,0.0,2.0,35,0.00,,,0.00,Wunderground v.1.15,2013-11-11 19:17:00,
2013-11-11 14:19:00,56.7,29.3,30.22,SW,235,4.0,4.0,35,0.00,,,0.00,Wunderground v.1.15,2013-11-11 19:19:00,
2013-11-11 14:20:00,56.7,28.6,30.22,West,265,2.0,3.0,34,0.00,,,0.00,Wunderground v.1.15,2013-11-11 19:20:00,
2013-11-11 14:21:00,56.8,28.7,30.22,NW,310,0.0,3.0,34,0.00,,,0.00,Wunderground v.1.15,2013-11-11 19:21:00,
2013-11-11 14:22:00,56.8,28.7,30.22,NW,311,0.0,3.0,34,0.00,,,0.00,Wunderground v.1.15,2013-11-11 19:22:00,
2013-11-11 14:25:00,56.8,28.7,30.22,East,80,1.0,3.0,34,0.00,,,0.00,Wunderground v.1.15,2013-11-11 19:25:00,
2013-11-11 14:26:00,56.7,28.6,30.22,East,82,0.0,3.0,34,0.00,,,0.00,Wunderground v.1.15,2013-11-11 19:26:00,
2013-11-11 14:27:00,56.7,28.6,30.22,East,82,0.0,3.0,34,0.00,,,0.00,Wunderground v.1.15,2013-11-11 19:27:00,
2013-11-11 14:28:00,56.6,28.5,30.22,East,98,1.0,3.0,34,0.00,,,0.00,Wunderground v.1.15,2013-11-11 19:28:00,
2013-11-11 14:30:00,56.7,28.6,30.22,SW,231,1.0,1.0,34,0.00,,,0.00,Wunderground v.1.15,2013-11-11 19:30:00,
2013-11-11 14:31:00,56.7,28.6,30.22,NNW,346,1.0,2.0,34,0.00,,,0.00,Wunderground v.1.15,2013-11-11 19:31:00,
2013-11-11 14:32:00,56.8,28.7,30.22,NNW,342,1.0,2.0,34,0.00,,,0.00,Wunderground v.1.15,2013-11-11 19:32:00,
2013-11-11 14:33:00,56.9,29.5,30.22,SSE,162,1.0,3.0,35,0.00,,,0.00,Wunderground v.1.15,2013-11-11 19:33:00,
2013-11-11 14:35:00,57.0,28.9,30.22,SW,225,3.0,3.0,34,0.00,,,0.00,Wunderground v.1.15,2013-11-11 19:35:00,
2013-11-11 14:36:00,57.1,29.7,30.22,WSW,241,1.0,3.0,35,0.00,,,0.00,Wunderground v.1.15,2013-11-11 19:36:00,
2013-11-11 14:37:00,57.2,29.8,30.22,SW,221,2.0,3.0,35,0.00,,,0.00,Wunderground v.1.15,2013-11-11 19:37:00,
2013-11-11 14:38:00,57.4,29.9,30.22,South,181,1.0,3.0,35,0.00,,,0.00,Wunderground v.1.15,2013-11-11 19:38:00,
2013-11-11 14:41:00,57.6,28.7,30.22,South,181,0.0,1.0,33,0.00,,,0.00,Wunderground v.1.15,2013-11-11 19:41:00,
2013-11-11 14:42:00,57.6,28.7,30.22,South,181,1.0,1.0,33,0.00,,,0.00,Wunderground v.1.15,2013-11-11 19:42:00,
2013-11-11 14:43:00,57.7,28.0,30.22,South,176,0.0,1.0,32,0.00,,,0.00,Wunderground v.1.15,2013-11-11 19:43:00,
2013-11-11 14:44:00,57.7,28.8,30.22,SW,235,4.0,5.0,33,0.00,,,0.00,Wunderground v.1.15,2013-11-11 19:44:00,
2013-11-11 14:46:00,57.8,28.1,30.22,WSW,238,3.0,5.0,32,0.00,,,0.00,Wunderground v.1.15,2013-11-11 19:46:00,
2013-11-11 14:47:00,57.9,28.2,30.21,WSW,240,2.0,5.0,32,0.00,,,0.00,Wunderground v.1.15,2013-11-11 19:47:00,
2013-11-11 14:48:00,57.9,28.2,30.21,WSW,248,2.0,5.0,32,0.00,,,0.00,Wunderground v.1.15,2013-11-11 19:48:00,
2013-11-11 14:49:00,58.0,28.3,30.21,West,265,0.0,5.0,32,0.00,,,0.00,Wunderground v.1.15,2013-11-11 19:49:00,
2013-11-11 14:51:00,58.1,28.4,30.21,West,264,0.0,2.0,32,0.00,,,0.00,Wunderground v.1.15,2013-11-11 19:51:00,
2013-11-11 14:52:00,58.1,27.6,30.21,West,264,0.0,2.0,31,0.00,,,0.00,Wunderground v.1.15,2013-11-11 19:52:00,
2013-11-11 14:53:00,58.1,27.6,30.21,South,172,1.0,2.0,31,0.00,,,0.00,Wunderground v.1.15,2013-11-11 19:53:00,
2013-11-11 14:54:00,58.1,27.6,30.21,South,172,0.0,2.0,31,0.00,,,0.00,Wunderground v.1.15,2013-11-11 19:54:00,
2013-11-11 14:56:00,58.0,26.7,30.21,South,170,0.0,2.0,30,0.00,,,0.00,Wunderground v.1.15,2013-11-11 19:56:00,
2013-11-11 14:57:00,58.0,26.7,30.21,South,170,0.0,2.0,30,0.00,,,0.00,Wunderground v.1.15,2013-11-11 19:57:00,
2013-11-11 14:59:00,58.0,27.5,30.21,West,262,1.0,2.0,31,0.00,,,0.00,Wunderground v.1.15,2013-11-11 19:59:00,
2013-11-11 15:00:00,58.0,28.3,30.21,West,262,2.0,3.0,32,0.00,,,0.00,Wunderground v.1.15,2013-11-11 20:00:00,
2013-11-11 15:01:00,58.1,27.6,30.21,WSW,246,3.0,4.0,31,0.00,,,0.00,Wunderground v.1.15,2013-11-11 20:01:00,
2013-11-11 15:02:00,58.1,28.4,30.21,SW,232,2.0,4.0,32,0.00,,,0.00,Wunderground v.1.15,2013-11-11 20:02:00,
2013-11-11 15:03:00,58.1,28.4,30.21,WSW,249,2.0,4.0,32,0.00,,,0.00,Wunderground v.1.15,2013-11-11 20:03:00,
2013-11-11 15:04:00,58.2,27.7,30.21,West,278,3.0,4.0,31,0.00,,,0.00,Wunderground v.1.15,2013-11-11 20:04:00,
2013-11-11 15:06:00,58.3,28.5,30.21,SW,235,3.0,4.0,32,0.00,,,0.00,Wunderground v.1.15,2013-11-11 20:06:00,
2013-11-11 15:07:00,58.4,28.6,30.21,SE,143,1.0,4.0,32,0.00,,,0.00,Wunderground v.1.15,2013-11-11 20:07:00,
2013-11-11 15:08:00,58.4,28.6,30.21,ESE,102,2.0,4.0,32,0.00,,,0.00,Wunderground v.1.15,2013-11-11 20:08:00,
2013-11-11 15:10:00,58.5,28.7,30.21,WSW,243,1.0,2.0,32,0.00,,,0.00,Wunderground v.1.15,2013-11-11 20:10:00,
2013-11-11 15:11:00,58.5,27.9,30.21,WSW,243,0.0,2.0,31,0.00,,,0.00,Wunderground v.1.15,2013-11-11 20:11:00,
2013-11-11 15:12:00,58.5,27.9,30.21,WSW,243,0.0,2.0,31,0.00,,,0.00,Wunderground v.1.15,2013-11-11 20:12:00,
2013-11-11 15:13:00,58.6,28.0,30.21,WSW,243,0.0,2.0,31,0.00,,,0.00,Wunderground v.1.15,2013-11-11 20:13:00,
2013-11-11 15:16:00,58.5,27.9,30.21,SE,125,1.0,2.0,31,0.00,,,0.00,Wunderground v.1.15,2013-11-11 20:16:00,
2013-11-11 15:17:00,58.5,27.1,30.21,WSW,248,1.0,2.0,30,0.00,,,0.00,Wunderground v.1.15,2013-11-11 20:17:00,
2013-11-11 15:18:00,58.5,27.9,30.21,WSW,238,0.0,2.0,31,0.00,,,0.00,Wunderground v.1.15,2013-11-11 20:18:00,
2013-11-11 15:19:00,58.5,27.9,30.21,WSW,240,0.0,2.0,31,0.00,,,0.00,Wunderground v.1.15,2013-11-11 20:19:00,
2013-11-11 15:21:00,58.4,27.9,30.21,WSW,240,0.0,1.0,31,0.00,,,0.00,Wunderground v.1.15,2013-11-11 20:21:00,
2013-11-11 15:22:00,58.5,28.7,30.21,West,263,1.0,1.0,32,0.00,,,0.00,Wunderground v.1.15,2013-11-11 20:22:00,
2013-11-11 15:23:00,58.5,29.5,30.21,SW,226,2.0,5.0,33,0.00,,,0.00,Wunderground v.1.15,2013-11-11 20:23:00,
2013-11-11 15:24:00,58.5,28.7,30.21,SSW,212,2.0,5.0,32,0.00,,,0.00,Wunderground v.1.15,2013-11-11 20:24:00,
2013-11-11 15:27:00,58.7,29.6,30.21,WSW,252,3.0,5.0,33,0.00,,,0.00,Wunderground v.1.15,2013-11-11 20:27:00,
2013-11-11 15:28:00,58.7,29.6,30.21,WSW,255,1.0,5.0,33,0.00,,,0.00,Wunderground v.1.15,2013-11-11 20:28:00,
2013-11-11 15:30:00,58.6,30.3,30.21,SW,229,1.0,2.0,34,0.00,,,0.00,Wunderground v.1.15,2013-11-11 20:30:00,
2013-11-11 15:32:00,58.7,29.6,30.21,WSW,246,1.0,2.0,33,0.00,,,0.00,Wunderground v.1.15,2013-11-11 20:32:00,
2013-11-11 15:33:00,58.7,29.6,30.21,WSW,250,3.0,4.0,33,0.00,,,0.00,Wunderground v.1.15,2013-11-11 20:33:00,
2013-11-11 15:34:00,58.7,29.6,30.21,WSW,252,4.0,4.0,33,0.00,,,0.00,Wunderground v.1.15,2013-11-11 20:34:00,
2013-11-11 15:35:00,58.8,29.7,30.21,SW,229,4.0,7.0,33,0.00,,,0.00,Wunderground v.1.15,2013-11-11 20:35:00,
2013-11-11 15:37:00,58.7,29.6,30.22,WSW,248,2.0,7.0,33,0.00,,,0.00,Wunderground v.1.15,2013-11-11 20:37:00,
2013-11-11 15:39:00,58.8,29.7,30.22,SW,216,4.0,7.0,33,0.00,,,0.00,Wunderground v.1.15,2013-11-11 20:39:00,
2013-11-11 15:40:00,58.8,30.5,30.21,SW,232,1.0,2.0,34,0.00,,,0.00,Wunderground v.1.15,2013-11-11 20:40:00,
2013-11-11 15:42:00,58.8,31.2,30.22,SW,229,1.0,3.0,35,0.00,,,0.00,Wunderground v.1.15,2013-11-11 20:42:00,
2013-11-11 15:44:00,58.8,30.5,30.22,South,190,2.0,5.0,34,0.00,,,0.00,Wunderground v.1.15,2013-11-11 20:44:00,
2013-11-11 15:45:00,58.7,30.4,30.22,South,190,1.0,5.0,34,0.00,,,0.00,Wunderground v.1.15,2013-11-11 20:45:00,
2013-11-11 15:47:00,58.6,30.3,30.22,SW,232,4.0,6.0,34,0.00,,,0.00,Wunderground v.1.15,2013-11-11 20:47:00,
2013-11-11 15:49:00,58.5,30.9,30.22,SW,219,2.0,6.0,35,0.00,,,0.00,Wunderground v.1.15,2013-11-11 20:49:00,
2013-11-11 15:50:00,58.5,30.9,30.22,SW,228,1.0,2.0,35,0.00,,,0.00,Wunderground v.1.15,2013-11-11 20:50:00,
2013-11-11 15:52:00,58.3,31.4,30.22,SW,228,0.0,2.0,36,0.00,,,0.00,Wunderground v.1.15,2013-11-11 20:52:00,
2013-11-11 15:53:00,58.3,31.4,30.22,WSW,239,0.0,2.0,36,0.00,,,0.00,Wunderground v.1.15,2013-11-11 20:53:00,
2013-11-11 15:55:00,58.3,30.7,30.22,SW,222,0.0,2.0,35,0.00,,,0.00,Wunderground v.1.15,2013-11-11 20:55:00,
2013-11-11 15:56:00,58.2,30.7,30.22,WSW,243,1.0,2.0,35,0.00,,,0.00,Wunderground v.1.15,2013-11-11 20:56:00,
2013-11-11 15:58:00,58.3,30.7,30.22,SW,229,2.0,3.0,35,0.00,,,0.00,Wunderground v.1.15,2013-11-11 20:58:00,
2013-11-11 16:00:00,58.3,30.7,30.22,SW,226,3.0,3.0,35,0.00,,,0.00,Wunderground v.1.15,2013-11-11 21:00:00,
2013-11-11 16:01:00,58.2,30.7,30.22,SW,229,3.0,4.0,35,0.00,,,0.00,Wunderground v.1.15,2013-11-11 21:01:00,
2013-11-11 16:03:00,58.1,30.6,30.22,WSW,242,2.0,4.0,35,0.00,,,0.00,Wunderground v.1.15,2013-11-11 21:03:00,
2013-11-11 16:05:00,57.9,30.4,30.22,SW,233,3.0,5.0,35,0.00,,,0.00,Wunderground v.1.15,2013-11-11 21:05:00,
2013-11-11 16:06:00,57.9,30.4,30.22,SW,217,3.0,5.0,35,0.00,,,0.00,Wunderground v.1.15,2013-11-11 21:06:00,
2013-11-11 16:07:00,57.8,30.3,30.22,SW,222,2.0,5.0,35,0.00,,,0.00,Wunderground v.1.15,2013-11-11 21:07:00,
2013-11-11 16:08:00,57.8,30.3,30.22,West,263,1.0,5.0,35,0.00,,,0.00,Wunderground v.1.15,2013-11-11 21:08:00,
2013-11-11 16:10:00,57.8,30.3,30.22,WSW,253,3.0,3.0,35,0.00,,,0.00,Wunderground v.1.15,2013-11-11 21:10:00,
2013-11-11 16:11:00,57.7,30.2,30.22,WSW,244,3.0,3.0,35,0.00,,,0.00,Wunderground v.1.15,2013-11-11 21:11:00,
2013-11-11 16:12:00,57.8,30.3,30.22,WSW,254,3.0,3.0,35,0.00,,,0.00,Wunderground v.1.15,2013-11-11 21:12:00,
2013-11-11 16:13:00,57.8,29.6,30.22,West,262,3.0,5.0,34,0.00,,,0.00,Wunderground v.1.15,2013-11-11 21:13:00,
2013-11-11 16:15:00,57.9,29.7,30.21,SW,235,4.0,5.0,34,0.00,,,0.00,Wunderground v.1.15,2013-11-11 21:15:00,
2013-11-11 16:17:00,57.9,28.9,30.21,SW,229,2.0,5.0,33,0.00,,,0.00,Wunderground v.1.15,2013-11-11 21:17:00,
2013-11-11 16:18:00,57.9,29.7,30.21,SW,224,2.0,5.0,34,0.00,,,0.00,Wunderground v.1.15,2013-11-11 21:18:00,
2013-11-11 16:19:00,57.9,29.7,30.21,SW,224,1.0,5.0,34,0.00,,,0.00,Wunderground v.1.15,2013-11-11 21:19:00,
2013-11-11 16:22:00,58.0,29.0,30.21,SW,232,1.0,3.0,33,0.00,,,0.00,Wunderground v.1.15,2013-11-11 21:22:00,
2013-11-11 16:23:00,58.0,29.0,30.21,WSW,253,2.0,3.0,33,0.00,,,0.00,Wunderground v.1.15,2013-11-11 21:23:00,
2013-11-11 16:25:00,58.1,29.1,30.21,SW,221,1.0,3.0,33,0.00,,,0.00,Wunderground v.1.15,2013-11-11 21:25:00,
2013-11-11 16:27:00,58.3,28.5,30.21,SW,232,2.0,3.0,32,0.00,,,0.00,Wunderground v.1.15,2013-11-11 21:27:00,
2013-11-11 16:29:00,58.4,29.4,30.21,SW,222,1.0,3.0,33,0.00,,,0.00,Wunderground v.1.15,2013-11-11 21:29:00,
2013-11-11 16:30:00,58.5,28.7,30.21,SW,231,3.0,3.0,32,0.00,,,0.00,Wunderground v.1.15,2013-11-11 21:30:00,
2013-11-11 16:32:00,58.4,28.6,30.21,SW,229,0.0,3.0,32,0.00,,,0.00,Wunderground v.1.15,2013-11-11 21:32:00,
2013-11-11 16:33:00,58.4,29.4,30.21,SW,229,2.0,3.0,33,0.00,,,0.00,Wunderground v.1.15,2013-11-11 21:33:00,
2013-11-11 16:34:00,58.4,29.4,30.21,SW,229,2.0,3.0,33,0.00,,,0.00,Wunderground v.1.15,2013-11-11 21:34:00,
2013-11-11 16:35:00,58.3,28.5,30.21,SW,226,1.0,3.0,32,0.00,,,0.00,Wunderground v.1.15,2013-11-11 21:35:00,
2013-11-11 16:37:00,58.1,29.8,30.21,SW,235,2.0,3.0,34,0.00,,,0.00,Wunderground v.1.15,2013-11-11 21:37:00,
2013-11-11 16:38:00,58.0,29.0,30.21,WSW,245,2.0,3.0,33,0.00,,,0.00,Wunderground v.1.15,2013-11-11 21:38:00,
2013-11-11 16:39:00,57.9,28.9,30.21,SW,232,2.0,3.0,33,0.00,,,0.00,Wunderground v.1.15,2013-11-11 21:39:00,
2013-11-11 16:40:00,57.8,28.9,30.21,SW,226,2.0,3.0,33,0.00,,,0.00,Wunderground v.1.15,2013-11-11 21:40:00,
2013-11-11 16:42:00,57.6,28.7,30.21,SW,229,1.0,3.0,33,0.00,,,0.00,Wunderground v.1.15,2013-11-11 21:42:00,
2013-11-11 16:43:00,57.6,28.7,30.21,SW,229,1.0,3.0,33,0.00,,,0.00,Wunderground v.1.15,2013-11-11 21:43:00,
2013-11-11 16:44:00,57.5,29.3,30.21,SW,229,0.0,3.0,34,0.00,,,0.00,Wunderground v.1.15,2013-11-11 21:44:00,
2013-11-11 16:45:00,57.5,30.0,30.21,SW,229,0.0,3.0,35,0.00,,,0.00,Wunderground v.1.15,2013-11-11 21:45:00,
2013-11-11 16:46:00,57.3,29.9,30.21,SW,229,0.0,3.0,35,0.00,,,0.00,Wunderground v.1.15,2013-11-11 21:46:00,
2013-11-11 16:47:00,57.1,30.4,30.20,SW,229,0.0,3.0,36,0.00,,,0.00,Wunderground v.1.15,2013-11-11 21:47:00,
2013-11-11 16:48:00,57.1,30.4,30.20,SW,229,0.0,3.0,36,0.00,,,0.00,Wunderground v.1.15,2013-11-11 21:48:00,
2013-11-11 16:50:00,56.7,30.7,30.21,SW,229,0.0,1.0,37,0.00,,,0.00,Wunderground v.1.15,2013-11-11 21:50:00,
2013-11-11 16:51:00,56.5,30.5,30.20,SW,229,0.0,1.0,37,0.00,,,0.00,Wunderground v.1.15,2013-11-11 21:51:00,
2013-11-11 16:52:00,56.2,30.2,30.20,SW,229,0.0,1.0,37,0.00,,,0.00,Wunderground v.1.15,2013-11-11 21:52:00,
2013-11-11 16:53:00,56.0,30.1,30.20,SW,229,0.0,1.0,37,0.00,,,0.00,Wunderground v.1.15,2013-11-11 21:53:00,
2013-11-11 16:54:00,55.7,30.5,30.20,SW,229,0.0,1.0,38,0.00,,,0.00,Wunderground v.1.15,2013-11-11 21:54:00,
2013-11-11 16:55:00,55.6,30.4,30.20,SW,229,0.0,1.0,38,0.00,,,0.00,Wunderground v.1.15,2013-11-11 21:55:00,
2013-11-11 16:56:00,55.3,30.7,30.20,SW,229,0.0,1.0,39,0.00,,,0.00,Wunderground v.1.15,2013-11-11 21:56:00,
2013-11-11 16:58:00,55.0,30.5,30.21,SW,229,0.0,1.0,39,0.00,,,0.00,Wunderground v.1.15,2013-11-11 21:58:00,
2013-11-11 16:59:00,54.7,30.2,30.20,SW,229,0.0,1.0,39,0.00,,,0.00,Wunderground v.1.15,2013-11-11 21:59:00,
2013-11-11 17:00:00,54.6,30.1,30.20,SW,229,0.0,0.0,39,0.00,,,0.00,Wunderground v.1.15,2013-11-11 22:00:00,
2013-11-11 17:01:00,54.4,29.9,30.20,SW,229,0.0,0.0,39,0.00,,,0.00,Wunderground v.1.15,2013-11-11 22:01:00,
2013-11-11 17:02:00,54.3,29.8,30.20,SW,229,0.0,0.0,39,0.00,,,0.00,Wunderground v.1.15,2013-11-11 22:02:00,
2013-11-11 17:04:00,54.0,29.6,30.20,SW,229,0.0,0.0,39,0.00,,,0.00,Wunderground v.1.15,2013-11-11 22:04:00,
2013-11-11 17:05:00,53.8,29.4,30.20,SW,229,0.0,0.0,39,0.00,,,0.00,Wunderground v.1.15,2013-11-11 22:05:00,
2013-11-11 17:08:00,53.4,29.7,30.20,SW,229,0.0,0.0,40,0.00,,,0.00,Wunderground v.1.15,2013-11-11 22:08:00,
2013-11-11 17:09:00,53.1,30.6,30.20,SW,229,0.0,0.0,42,0.00,,,0.00,Wunderground v.1.15,2013-11-11 22:09:00,
2013-11-11 17:10:00,52.9,30.4,30.20,SW,229,0.0,0.0,42,0.00,,,0.00,Wunderground v.1.15,2013-11-11 22:10:00,
2013-11-11 17:13:00,52.4,30.0,30.20,SW,229,0.0,0.0,42,0.00,,,0.00,Wunderground v.1.15,2013-11-11 22:13:00,
2013-11-11 17:14:00,52.2,29.8,30.20,SW,229,0.0,0.0,42,0.00,,,0.00,Wunderground v.1.15,2013-11-11 22:14:00,
2013-11-11 17:15:00,52.1,30.3,30.20,SW,229,0.0,0.0,43,0.00,,,0.00,Wunderground v.1.15,2013-11-11 22:15:00,
2013-11-11 17:16:00,51.9,30.1,30.20,SW,229,0.0,0.0,43,0.00,,,0.00,Wunderground v.1.15,2013-11-11 22:16:00,
2013-11-11 17:18:00,51.4,30.2,30.20,SW,229,0.0,0.0,44,0.00,,,0.00,Wunderground v.1.15,2013-11-11 22:18:00,
2013-11-11 17:19:00,51.2,30.0,30.20,SW,229,0.0,1.0,44,0.00,,,0.00,Wunderground v.1.15,2013-11-11 22:19:00,
2013-11-11 17:20:00,51.2,30.0,30.20,SW,229,0.0,0.0,44,0.00,,,0.00,Wunderground v.1.15,2013-11-11 22:20:00,
2013-11-11 17:21:00,51.1,29.9,30.20,SW,229,0.0,0.0,44,0.00,,,0.00,Wunderground v.1.15,2013-11-11 22:21:00,
2013-11-11 17:23:00,50.9,29.7,30.20,SW,229,0.0,0.0,44,0.00,,,0.00,Wunderground v.1.15,2013-11-11 22:23:00,
2013-11-11 17:24:00,50.8,29.6,30.20,SW,229,0.0,0.0,44,0.00,,,0.00,Wunderground v.1.15,2013-11-11 22:24:00,
2013-11-11 17:25:00,50.8,29.6,30.20,SW,229,0.0,0.0,44,0.00,,,0.00,Wunderground v.1.15,2013-11-11 22:25:00,
2013-11-11 17:26:00,50.7,29.6,30.20,SW,229,0.0,0.0,44,0.00,,,0.00,Wunderground v.1.15,2013-11-11 22:26:00,
2013-11-11 17:29:00,50.4,29.3,30.20,SW,229,0.0,0.0,44,0.00,,,0.00,Wunderground v.1.15,2013-11-11 22:29:00,
2013-11-11 17:30:00,50.2,29.1,30.20,SW,229,0.0,0.0,44,0.00,,,0.00,Wunderground v.1.15,2013-11-11 22:30:00,
2013-11-11 17:31:00,50.1,29.6,30.20,SW,229,0.0,0.0,45,0.00,,,0.00,Wunderground v.1.15,2013-11-11 22:31:00,
2013-11-11 17:34:00,49.8,29.3,30.20,SW,230,0.0,1.0,45,0.00,,,0.00,Wunderground v.1.15,2013-11-11 22:34:00,
2013-11-11 17:35:00,49.7,29.7,30.20,SW,229,0.0,1.0,46,0.00,,,0.00,Wunderground v.1.15,2013-11-11 22:35:00,
2013-11-11 17:36:00,49.6,29.1,30.20,SW,229,0.0,1.0,45,0.00,,,0.00,Wunderground v.1.15,2013-11-11 22:36:00,
2013-11-11 17:39:00,49.3,28.8,30.20,SW,229,0.0,1.0,45,0.00,,,0.00,Wunderground v.1.15,2013-11-11 22:39:00,
2013-11-11 17:40:00,49.2,28.7,30.20,SW,230,0.0,0.0,45,0.00,,,0.00,Wunderground v.1.15,2013-11-11 22:40:00,
2013-11-11 17:41:00,49.2,28.7,30.20,SW,230,0.0,0.0,45,0.00,,,0.00,Wunderground v.1.15,2013-11-11 22:41:00,
2013-11-11 17:42:00,49.0,28.6,30.20,SW,229,0.0,0.0,45,0.00,,,0.00,Wunderground v.1.15,2013-11-11 22:42:00,
2013-11-11 17:45:00,48.8,28.4,30.20,SW,229,0.0,0.0,45,0.00,,,0.00,Wunderground v.1.15,2013-11-11 22:45:00,
2013-11-11 17:46:00,48.6,28.7,30.20,SW,229,0.0,0.0,46,0.00,,,0.00,Wunderground v.1.15,2013-11-11 22:46:00,
2013-11-11 17:47:00,48.6,28.7,30.20,SW,229,0.0,0.0,46,0.00,,,0.00,Wunderground v.1.15,2013-11-11 22:47:00,
2013-11-11 17:48:00,48.5,29.2,30.20,SW,230,0.0,0.0,47,0.00,,,0.00,Wunderground v.1.15,2013-11-11 22:48:00,
2013-11-11 17:50:00,48.4,28.5,30.20,SW,229,0.0,0.0,46,0.00,,,0.00,Wunderground v.1.15,2013-11-11 22:50:00,
2013-11-11 17:51:00,48.3,28.5,30.20,SW,229,0.0,0.0,46,0.00,,,0.00,Wunderground v.1.15,2013-11-11 22:51:00,
2013-11-11 17:52:00,48.2,28.4,30.20,SW,229,0.0,0.0,46,0.00,,,0.00,Wunderground v.1.15,2013-11-11 22:52:00,
2013-11-11 17:54:00,47.9,28.1,30.20,SW,229,0.0,0.0,46,0.00,,,0.00,Wunderground v.1.15,2013-11-11 22:54:00,
2013-11-11 17:55:00,47.8,28.0,30.20,SW,229,0.0,0.0,46,0.00,,,0.00,Wunderground v.1.15,2013-11-11 22:55:00,
2013-11-11 17:56:00,47.7,27.9,30.20,SW,229,0.0,0.0,46,0.00,,,0.00,Wunderground v.1.15,2013-11-11 22:56:00,
2013-11-11 17:57:00,47.6,27.8,30.20,SW,229,0.0,0.0,46,0.00,,,0.00,Wunderground v.1.15,2013-11-11 22:57:00,
2013-11-11 18:00:00,47.3,27.5,30.20,SW,229,0.0,0.0,46,0.00,,,0.00,Wunderground v.1.15,2013-11-11 23:00:00,
2013-11-11 18:01:00,47.2,27.5,30.20,SW,229,0.0,0.0,46,0.00,,,0.00,Wunderground v.1.15,2013-11-11 23:01:00,
2013-11-11 18:02:00,47.2,27.5,30.20,SW,229,0.0,0.0,46,0.00,,,0.00,Wunderground v.1.15,2013-11-11 23:02:00,
2013-11-11 18:05:00,47.1,27.9,30.20,SW,230,0.0,0.0,47,0.00,,,0.00,Wunderground v.1.15,2013-11-11 23:05:00,
2013-11-11 18:06:00,47.1,27.9,30.20,SW,229,0.0,0.0,47,0.00,,,0.00,Wunderground v.1.15,2013-11-11 23:06:00,
2013-11-11 18:07:00,47.2,27.5,30.20,SW,229,0.0,0.0,46,0.00,,,0.00,Wunderground v.1.15,2013-11-11 23:07:00,
2013-11-11 18:11:00,47.2,28.0,30.20,SW,229,0.0,0.0,47,0.00,,,0.00,Wunderground v.1.15,2013-11-11 23:11:00,
2013-11-11 18:12:00,47.1,27.4,30.20,SW,229,0.0,0.0,46,0.00,,,0.00,Wunderground v.1.15,2013-11-11 23:12:00,
2013-11-11 18:13:00,47.1,27.4,30.20,SW,230,0.0,0.0,46,0.00,,,0.00,Wunderground v.1.15,2013-11-11 23:13:00,
2013-11-11 18:16:00,46.8,27.1,30.19,SW,229,0.0,0.0,46,0.00,,,0.00,Wunderground v.1.15,2013-11-11 23:16:00,
2013-11-11 18:17:00,46.7,27.0,30.19,SW,230,0.0,0.0,46,0.00,,,0.00,Wunderground v.1.15,2013-11-11 23:17:00,
2013-11-11 18:18:00,46.6,26.9,30.19,SW,229,0.0,0.0,46,0.00,,,0.00,Wunderground v.1.15,2013-11-11 23:18:00,
2013-11-11 18:21:00,46.4,26.7,30.20,SW,229,0.0,0.0,46,0.00,,,0.00,Wunderground v.1.15,2013-11-11 23:21:00,
2013-11-11 18:22:00,46.3,26.6,30.20,SW,229,0.0,0.0,46,0.00,,,0.00,Wunderground v.1.15,2013-11-11 23:22:00,
2013-11-11 18:23:00,46.2,26.5,30.20,SW,229,0.0,0.0,46,0.00,,,0.00,Wunderground v.1.15,2013-11-11 23:23:00,
2013-11-11 18:24:00,46.2,26.5,30.20,SW,230,0.0,0.0,46,0.00,,,0.00,Wunderground v.1.15,2013-11-11 23:24:00,
2013-11-11 18:26:00,46.2,27.1,30.20,SW,229,0.0,0.0,47,0.00,,,0.00,Wunderground v.1.15,2013-11-11 23:26:00,
2013-11-11 18:27:00,46.3,28.2,30.20,SW,229,0.0,0.0,49,0.00,,,0.00,Wunderground v.1.15,2013-11-11 23:27:00,
2013-11-11 18:29:00,46.4,28.8,30.20,SW,230,0.0,0.0,50,0.00,,,0.00,Wunderground v.1.15,2013-11-11 23:29:00,
2013-11-11 18:31:00,46.4,29.2,30.20,SW,229,0.0,0.0,51,0.00,,,0.00,Wunderground v.1.15,2013-11-11 23:31:00,
2013-11-11 18:32:00,46.4,29.7,30.20,SW,230,0.0,0.0,52,0.00,,,0.00,Wunderground v.1.15,2013-11-11 23:32:00,
2013-11-11 18:34:00,46.3,29.1,30.20,SW,229,0.0,0.0,51,0.00,,,0.00,Wunderground v.1.15,2013-11-11 23:34:00,
2013-11-11 18:35:00,46.3,28.2,30.20,SW,229,0.0,0.0,49,0.00,,,0.00,Wunderground v.1.15,2013-11-11 23:35:00,
2013-11-11 18:36:00,46.2,28.1,30.20,SW,230,0.0,1.0,49,0.00,,,0.00,Wunderground v.1.15,2013-11-11 23:36:00,
2013-11-11 18:37:00,46.2,28.6,30.20,SW,229,0.0,1.0,50,0.00,,,0.00,Wunderground v.1.15,2013-11-11 23:37:00,
2013-11-11 18:38:00,46.2,29.5,30.20,SW,229,0.0,1.0,52,0.00,,,0.00,Wunderground v.1.15,2013-11-11 23:38:00,
2013-11-11 18:39:00,46.2,30.0,30.20,SW,230,0.0,1.0,53,0.00,,,0.00,Wunderground v.1.15,2013-11-11 23:39:00,
2013-11-11 18:40:00,46.1,30.8,30.20,SW,229,0.0,1.0,55,0.00,,,0.00,Wunderground v.1.15,2013-11-11 23:40:00,
2013-11-11 18:42:00,46.1,30.4,30.20,SW,230,0.0,1.0,54,0.00,,,0.00,Wunderground v.1.15,2013-11-11 23:42:00,
2013-11-11 18:43:00,46.1,30.4,30.19,SW,229,0.0,1.0,54,0.00,,,0.00,Wunderground v.1.15,2013-11-11 23:43:00,
2013-11-11 18:44:00,46.0,29.8,30.19,SW,229,0.0,1.0,53,0.00,,,0.00,Wunderground v.1.15,2013-11-11 23:44:00,
2013-11-11 18:45:00,46.0,29.3,30.19,SW,229,0.0,1.0,52,0.00,,,0.00,Wunderground v.1.15,2013-11-11 23:45:00,
2013-11-11 18:47:00,45.9,30.2,30.19,SW,229,0.0,1.0,54,0.00,,,0.00,Wunderground v.1.15,2013-11-11 23:47:00,
2013-11-11 18:48:00,45.8,29.2,30.19,SW,230,0.0,1.0,52,0.00,,,0.00,Wunderground v.1.15,2013-11-11 23:48:00,
2013-11-11 18:49:00,45.8,29.6,30.20,SW,229,0.0,1.0,53,0.00,,,0.00,Wunderground v.1.15,2013-11-11 23:49:00,
2013-11-11 18:51:00,45.8,29.6,30.19,SW,229,0.0,1.0,53,0.00,,,0.00,Wunderground v.1.15,2013-11-11 23:51:00,
2013-11-11 18:52:00,45.7,29.5,30.19,SW,229,0.0,1.0,53,0.00,,,0.00,Wunderground v.1.15,2013-11-11 23:52:00,
2013-11-11 18:53:00,45.7,29.1,30.20,SW,229,0.0,1.0,52,0.00,,,0.00,Wunderground v.1.15,2013-11-11 23:53:00,
2013-11-11 18:54:00,45.7,29.5,30.20,SW,229,0.0,1.0,53,0.00,,,0.00,Wunderground v.1.15,2013-11-11 23:54:00,
2013-11-11 18:56:00,45.6,29.9,30.20,SW,229,0.0,1.0,54,0.00,,,0.00,Wunderground v.1.15,2013-11-11 23:56:00,
2013-11-11 18:57:00,45.6,29.9,30.20,SW,229,0.0,1.0,54,0.00,,,0.00,Wunderground v.1.15,2013-11-11 23:57:00,
2013-11-11 18:58:00,45.5,30.3,30.20,SW,229,0.0,1.0,55,0.00,,,0.00,Wunderground v.1.15,2013-11-11 23:58:00,
2013-11-11 19:00:00,45.4,30.2,30.20,SW,229,0.0,0.0,55,0.00,,,0.00,Wunderground v.1.15,2013-11-12 00:00:00,
2013-11-11 19:02:00,45.2,30.0,30.20,SW,229,0.0,0.0,55,0.00,,,0.00,Wunderground v.1.15,2013-11-12 00:02:00,
2013-11-11 19:03:00,45.1,29.4,30.20,SW,229,0.0,0.0,54,0.00,,,0.00,Wunderground v.1.15,2013-11-12 00:03:00,
2013-11-11 19:04:00,45.0,29.3,30.20,SW,230,0.0,0.0,54,0.00,,,0.00,Wunderground v.1.15,2013-11-12 00:04:00,
2013-11-11 19:05:00,44.9,29.2,30.20,SW,230,0.0,0.0,54,0.00,,,0.00,Wunderground v.1.15,2013-11-12 00:05:00,
2013-11-11 19:06:00,44.7,29.5,30.20,SW,230,0.0,1.0,55,0.00,,,0.00,Wunderground v.1.15,2013-11-12 00:06:00,
2013-11-11 19:07:00,44.7,29.5,30.20,SW,229,0.0,1.0,55,0.00,,,0.00,Wunderground v.1.15,2013-11-12 00:07:00,
2013-11-11 19:08:00,44.6,29.9,30.20,SW,230,0.0,1.0,56,0.00,,,0.00,Wunderground v.1.15,2013-11-12 00:08:00,
2013-11-11 19:09:00,44.5,30.2,30.20,SW,229,0.0,1.0,57,0.00,,,0.00,Wunderground v.1.15,2013-11-12 00:09:00,
2013-11-11 19:10:00,44.5,30.6,30.20,SW,229,0.0,0.0,58,0.00,,,0.00,Wunderground v.1.15,2013-11-12 00:10:00,
2013-11-11 19:11:00,44.4,30.5,30.20,SW,230,0.0,0.0,58,0.00,,,0.00,Wunderground v.1.15,2013-11-12 00:11:00,
2013-11-11 19:12:00,44.3,30.0,30.20,SW,229,0.0,0.0,57,0.00,,,0.00,Wunderground v.1.15,2013-11-12 00:12:00,
2013-11-11 19:13:00,44.2,29.5,30.20,SW,229,0.0,0.0,56,0.00,,,0.00,Wunderground v.1.15,2013-11-12 00:13:00,
2013-11-11 19:15:00,44.0,30.2,30.20,SW,230,0.0,0.0,58,0.00,,,0.00,Wunderground v.1.15,2013-11-12 00:15:00,
2013-11-11 19:17:00,43.9,30.1,30.19,SW,229,0.0,0.0,58,0.00,,,0.00,Wunderground v.1.15,2013-11-12 00:17:00,
2013-11-11 19:18:00,43.7,29.9,30.20,SW,229,0.0,0.0,58,0.00,,,0.00,Wunderground v.1.15,2013-11-12 00:18:00,
2013-11-11 19:20:00,43.6,29.8,30.19,SW,229,0.0,1.0,58,0.00,,,0.00,Wunderground v.1.15,2013-11-12 00:20:00,
2013-11-11 19:22:00,43.5,29.7,30.19,SW,229,0.0,1.0,58,0.00,,,0.00,Wunderground v.1.15,2013-11-12 00:22:00,
2013-11-11 19:23:00,43.6,30.2,30.20,SW,229,0.0,1.0,59,0.00,,,0.00,Wunderground v.1.15,2013-11-12 00:23:00,
2013-11-11 19:24:00,43.5,30.1,30.19,SW,229,0.0,1.0,59,0.00,,,0.00,Wunderground v.1.15,2013-11-12 00:24:00,
2013-11-11 19:25:00,43.5,30.5,30.20,SW,229,0.0,1.0,60,0.00,,,0.00,Wunderground v.1.15,2013-11-12 00:25:00,
2013-11-11 19:27:00,43.5,30.1,30.19,SW,229,0.0,1.0,59,0.00,,,0.00,Wunderground v.1.15,2013-11-12 00:27:00,
2013-11-11 19:28:00,43.4,30.0,30.19,SW,229,0.0,1.0,59,0.00,,,0.00,Wunderground v.1.15,2013-11-12 00:28:00,
2013-11-11 19:29:00,43.3,29.9,30.19,SW,230,1.0,1.0,59,0.00,,,0.00,Wunderground v.1.15,2013-11-12 00:29:00,
2013-11-11 19:30:00,43.3,29.5,30.19,SW,229,0.0,1.0,58,0.00,,,0.00,Wunderground v.1.15,2013-11-12 00:30:00,
2013-11-11 19:31:00,43.3,29.5,30.19,SW,229,0.0,1.0,58,0.00,,,0.00,Wunderground v.1.15,2013-11-12 00:31:00,
2013-11-11 19:32:00,43.3,29.5,30.19,SW,229,0.0,1.0,58,0.00,,,0.00,Wunderground v.1.15,2013-11-12 00:32:00,
2013-11-11 19:33:00,43.3,29.5,30.19,SW,229,1.0,1.0,58,0.00,,,0.00,Wunderground v.1.15,2013-11-12 00:33:00,
2013-11-11 19:34:00,43.3,29.5,30.19,SW,229,0.0,1.0,58,0.00,,,0.00,Wunderground v.1.15,2013-11-12 00:34:00,
2013-11-11 19:35:00,43.3,29.5,30.19,SW,229,0.0,1.0,58,0.00,,,0.00,Wunderground v.1.15,2013-11-12 00:35:00,
2013-11-11 19:36:00,43.3,29.5,30.19,SW,229,1.0,1.0,58,0.00,,,0.00,Wunderground v.1.15,2013-11-12 00:36:00,
2013-11-11 19:37:00,43.3,29.5,30.19,SW,229,0.0,1.0,58,0.00,,,0.00,Wunderground v.1.15,2013-11-12 00:37:00,
2013-11-11 19:38:00,43.2,29.8,30.19,SW,229,1.0,1.0,59,0.00,,,0.00,Wunderground v.1.15,2013-11-12 00:38:00,
2013-11-11 19:39:00,43.2,29.8,30.20,SW,229,1.0,1.0,59,0.00,,,0.00,Wunderground v.1.15,2013-11-12 00:39:00,
2013-11-11 19:40:00,43.2,29.8,30.19,SW,229,1.0,1.0,59,0.00,,,0.00,Wunderground v.1.15,2013-11-12 00:40:00,
2013-11-11 19:41:00,43.2,29.8,30.19,SW,229,1.0,1.0,59,0.00,,,0.00,Wunderground v.1.15,2013-11-12 00:41:00,
2013-11-11 19:42:00,43.2,30.2,30.19,SW,229,1.0,1.0,60,0.00,,,0.00,Wunderground v.1.15,2013-11-12 00:42:00,
2013-11-11 19:43:00,43.2,30.2,30.20,SW,229,1.0,1.0,60,0.00,,,0.00,Wunderground v.1.15,2013-11-12 00:43:00,
2013-11-11 19:45:00,43.2,30.6,30.19,SW,230,0.0,1.0,61,0.00,,,0.00,Wunderground v.1.15,2013-11-12 00:45:00,
2013-11-11 19:46:00,43.1,30.6,30.19,SW,229,0.0,1.0,61,0.00,,,0.00,Wunderground v.1.15,2013-11-12 00:46:00,
2013-11-11 19:47:00,43.1,30.6,30.19,SW,229,0.0,1.0,61,0.00,,,0.00,Wunderground v.1.15,2013-11-12 00:47:00,
2013-11-11 19:49:00,43.1,31.0,30.19,SW,229,0.0,1.0,62,0.00,,,0.00,Wunderground v.1.15,2013-11-12 00:49:00,
2013-11-11 19:50:00,43.0,30.9,30.19,SW,229,0.0,1.0,62,0.00,,,0.00,Wunderground v.1.15,2013-11-12 00:50:00,
2013-11-11 19:51:00,43.0,30.9,30.19,SW,229,0.0,1.0,62,0.00,,,0.00,Wunderground v.1.15,2013-11-12 00:51:00,
2013-11-11 19:52:00,43.0,30.9,30.19,SW,229,0.0,1.0,62,0.00,,,0.00,Wunderground v.1.15,2013-11-12 00:52:00,
2013-11-11 19:53:00,42.9,30.8,30.19,SW,229,0.0,1.0,62,0.00,,,0.00,Wunderground v.1.15,2013-11-12 00:53:00,
2013-11-11 19:54:00,42.8,30.7,30.19,SW,229,0.0,1.0,62,0.00,,,0.00,Wunderground v.1.15,2013-11-12 00:54:00,
2013-11-11 19:56:00,42.7,30.2,30.19,SW,229,0.0,1.0,61,0.00,,,0.00,Wunderground v.1.15,2013-11-12 00:56:00,
2013-11-11 19:57:00,42.6,30.1,30.19,SW,230,0.0,1.0,61,0.00,,,0.00,Wunderground v.1.15,2013-11-12 00:57:00,
2013-11-11 19:58:00,42.5,30.4,30.19,SW,229,0.0,1.0,62,0.00,,,0.00,Wunderground v.1.15,2013-11-12 00:58:00,
2013-11-11 20:00:00,42.5,30.0,30.19,SW,229,0.0,0.0,61,0.00,,,0.00,Wunderground v.1.15,2013-11-12 01:00:00,
2013-11-11 20:01:00,42.3,29.8,30.19,SW,229,0.0,0.0,61,0.00,,,0.00,Wunderground v.1.15,2013-11-12 01:01:00,
2013-11-11 20:02:00,42.3,30.2,30.19,SW,229,0.0,0.0,62,0.00,,,0.00,Wunderground v.1.15,2013-11-12 01:02:00,
2013-11-11 20:03:00,42.2,30.1,30.19,SW,230,0.0,0.0,62,0.00,,,0.00,Wunderground v.1.15,2013-11-12 01:03:00,
2013-11-11 20:05:00,42.1,30.0,30.19,SW,229,0.0,0.0,62,0.00,,,0.00,Wunderground v.1.15,2013-11-12 01:05:00,
2013-11-11 20:07:00,41.9,29.8,30.19,SW,229,0.0,0.0,62,0.00,,,0.00,Wunderground v.1.15,2013-11-12 01:07:00,
2013-11-11 20:08:00,41.8,30.1,30.19,SW,229,0.0,0.0,63,0.00,,,0.00,Wunderground v.1.15,2013-11-12 01:08:00,
2013-11-11 20:10:00,41.6,30.3,30.19,SW,229,0.0,0.0,64,0.00,,,0.00,Wunderground v.1.15,2013-11-12 01:10:00,
2013-11-11 20:12:00,41.5,30.2,30.19,SW,229,0.0,0.0,64,0.00,,,0.00,Wunderground v.1.15,2013-11-12 01:12:00,
2013-11-11 20:13:00,41.4,30.5,30.19,SW,229,0.0,0.0,65,0.00,,,0.00,Wunderground v.1.15,2013-11-12 01:13:00,
2013-11-11 20:14:00,41.3,30.4,30.19,SW,229,0.0,0.0,65,0.00,,,0.00,Wunderground v.1.15,2013-11-12 01:14:00,
2013-11-11 20:15:00,41.3,30.4,30.19,SW,229,0.0,0.0,65,0.00,,,0.00,Wunderground v.1.15,2013-11-12 01:15:00,
2013-11-11 20:17:00,41.2,30.7,30.19,SW,229,1.0,1.0,66,0.00,,,0.00,Wunderground v.1.15,2013-11-12 01:17:00,
2013-11-11 20:19:00,41.1,31.0,30.19,SW,229,1.0,1.0,67,0.00,,,0.00,Wunderground v.1.15,2013-11-12 01:19:00,
2013-11-11 20:20:00,41.1,31.0,30.19,SW,229,0.0,0.0,67,0.00,,,0.00,Wunderground v.1.15,2013-11-12 01:20:00,
2013-11-11 20:21:00,41.1,31.0,30.19,SW,229,1.0,1.0,67,0.00,,,0.00,Wunderground v.1.15,2013-11-12 01:21:00,
2013-11-11 20:22:00,41.1,31.3,30.19,SW,229,1.0,1.0,68,0.00,,,0.00,Wunderground v.1.15,2013-11-12 01:22:00,
2013-11-11 20:24:00,41.0,32.0,30.19,SW,230,0.0,1.0,70,0.00,,,0.00,Wunderground v.1.15,2013-11-12 01:24:00,
2013-11-11 20:26:00,41.0,32.0,30.19,SW,229,0.0,1.0,70,0.00,,,0.00,Wunderground v.1.15,2013-11-12 01:26:00,
2013-11-11 20:27:00,40.9,31.1,30.19,SW,229,0.0,1.0,68,0.00,,,0.00,Wunderground v.1.15,2013-11-12 01:27:00,
2013-11-11 20:28:00,40.9,31.5,30.19,SW,229,0.0,1.0,69,0.00,,,0.00,Wunderground v.1.15,2013-11-12 01:28:00,
2013-11-11 20:29:00,40.8,31.1,30.19,SW,229,0.0,1.0,68,0.00,,,0.00,Wunderground v.1.15,2013-11-12 01:29:00,
2013-11-11 20:31:00,40.7,31.0,30.19,SW,229,0.0,0.0,68,0.00,,,0.00,Wunderground v.1.15,2013-11-12 01:31:00,
2013-11-11 20:32:00,40.6,30.9,30.19,SW,229,0.0,0.0,68,0.00,,,0.00,Wunderground v.1.15,2013-11-12 01:32:00,
2013-11-11 20:33:00,40.6,30.9,30.19,SW,229,0.0,0.0,68,0.00,,,0.00,Wunderground v.1.15,2013-11-12 01:33:00,
2013-11-11 20:36:00,40.4,30.7,30.19,SW,230,0.0,0.0,68,0.00,,,0.00,Wunderground v.1.15,2013-11-12 01:36:00,
2013-11-11 20:37:00,40.3,30.9,30.19,SW,229,0.0,0.0,69,0.00,,,0.00,Wunderground v.1.15,2013-11-12 01:37:00,
2013-11-11 20:38:00,40.2,30.8,30.19,SW,229,0.0,0.0,69,0.00,,,0.00,Wunderground v.1.15,2013-11-12 01:38:00,
2013-11-11 20:41:00,40.1,30.7,30.19,SW,229,0.0,1.0,69,0.00,,,0.00,Wunderground v.1.15,2013-11-12 01:41:00,
2013-11-11 20:42:00,40.0,30.3,30.19,SW,229,0.0,1.0,68,0.00,,,0.00,Wunderground v.1.15,2013-11-12 01:42:00,
2013-11-11 20:43:00,40.0,30.3,30.19,SW,229,0.0,1.0,68,0.00,,,0.00,Wunderground v.1.15,2013-11-12 01:43:00,
2013-11-11 20:44:00,40.0,30.6,30.19,SW,229,0.0,1.0,69,0.00,,,0.00,Wunderground v.1.15,2013-11-12 01:44:00,
2013-11-11 20:46:00,39.9,30.5,30.19,SW,229,0.0,1.0,69,0.00,,,0.00,Wunderground v.1.15,2013-11-12 01:46:00,
2013-11-11 20:47:00,39.9,30.5,30.19,SW,229,0.0,1.0,69,0.00,,,0.00,Wunderground v.1.15,2013-11-12 01:47:00,
2013-11-11 20:48:00,39.8,30.5,30.19,SW,229,0.0,1.0,69,0.00,,,0.00,Wunderground v.1.15,2013-11-12 01:48:00,
2013-11-11 20:49:00,39.7,30.7,30.19,SW,229,0.0,1.0,70,0.00,,,0.00,Wunderground v.1.15,2013-11-12 01:49:00,
2013-11-11 20:51:00,39.7,30.7,30.19,SW,229,0.0,0.0,70,0.00,,,0.00,Wunderground v.1.15,2013-11-12 01:51:00,
2013-11-11 20:52:00,39.6,30.6,30.19,SW,229,0.0,0.0,70,0.00,,,0.00,Wunderground v.1.15,2013-11-12 01:52:00,
2013-11-11 20:53:00,39.6,30.6,30.19,SW,229,0.0,0.0,70,0.00,,,0.00,Wunderground v.1.15,2013-11-12 01:53:00,
2013-11-11 20:55:00,39.5,30.9,30.19,SW,229,0.0,0.0,71,0.00,,,0.00,Wunderground v.1.15,2013-11-12 01:55:00,
2013-11-11 20:56:00,39.4,30.4,30.18,SW,230,0.0,1.0,70,0.00,,,0.00,Wunderground v.1.15,2013-11-12 01:56:00,
2013-11-11 20:57:00,39.4,30.8,30.18,SW,229,0.0,1.0,71,0.00,,,0.00,Wunderground v.1.15,2013-11-12 01:57:00,
2013-11-11 20:58:00,39.4,30.8,30.18,SW,229,0.0,1.0,71,0.00,,,0.00,Wunderground v.1.15,2013-11-12 01:58:00,
2013-11-11 20:59:00,39.4,30.8,30.19,SW,229,0.0,1.0,71,0.00,,,0.00,Wunderground v.1.15,2013-11-12 01:59:00,
2013-11-11 21:00:00,39.3,31.0,30.19,SW,229,0.0,0.0,72,0.00,,,0.00,Wunderground v.1.15,2013-11-12 02:00:00,
2013-11-11 21:02:00,39.2,30.9,30.19,SW,229,0.0,0.0,72,0.00,,,0.00,Wunderground v.1.15,2013-11-12 02:02:00,
2013-11-11 21:03:00,39.2,30.9,30.19,SW,229,0.0,0.0,72,0.00,,,0.00,Wunderground v.1.15,2013-11-12 02:03:00,
2013-11-11 21:04:00,39.2,31.3,30.19,SW,230,0.0,0.0,73,0.00,,,0.00,Wunderground v.1.15,2013-11-12 02:04:00,
2013-11-11 21:06:00,39.1,30.8,30.19,SW,229,0.0,0.0,72,0.00,,,0.00,Wunderground v.1.15,2013-11-12 02:06:00,
2013-11-11 21:07:00,39.1,31.2,30.19,SW,229,0.0,0.0,73,0.00,,,0.00,Wunderground v.1.15,2013-11-12 02:07:00,
2013-11-11 21:08:00,39.1,31.2,30.19,SW,229,0.0,0.0,73,0.00,,,0.00,Wunderground v.1.15,2013-11-12 02:08:00,
2013-11-11 21:09:00,39.1,31.2,30.19,SW,229,0.0,0.0,73,0.00,,,0.00,Wunderground v.1.15,2013-11-12 02:09:00,
2013-11-11 21:12:00,39.1,31.2,30.19,SW,229,0.0,0.0,73,0.00,,,0.00,Wunderground v.1.15,2013-11-12 02:12:00,
2013-11-11 21:13:00,39.1,31.2,30.19,SW,229,0.0,0.0,73,0.00,,,0.00,Wunderground v.1.15,2013-11-12 02:13:00,
2013-11-11 21:14:00,39.1,31.2,30.19,SW,229,0.0,0.0,73,0.00,,,0.00,Wunderground v.1.15,2013-11-12 02:14:00,
2013-11-11 21:15:00,39.0,31.1,30.19,SW,229,0.0,0.0,73,0.00,,,0.00,Wunderground v.1.15,2013-11-12 02:15:00,
2013-11-11 21:17:00,38.9,31.0,30.19,SW,229,0.0,0.0,73,0.00,,,0.00,Wunderground v.1.15,2013-11-12 02:17:00,
2013-11-11 21:18:00,38.9,31.3,30.19,SW,229,0.0,0.0,74,0.00,,,0.00,Wunderground v.1.15,2013-11-12 02:18:00,
2013-11-11 21:19:00,38.8,31.2,30.19,SW,229,0.0,0.0,74,0.00,,,0.00,Wunderground v.1.15,2013-11-12 02:19:00,
2013-11-11 21:20:00,38.8,31.2,30.19,SW,229,0.0,0.0,74,0.00,,,0.00,Wunderground v.1.15,2013-11-12 02:20:00,
2013-11-11 21:22:00,38.7,31.1,30.19,SW,229,0.0,0.0,74,0.00,,,0.00,Wunderground v.1.15,2013-11-12 02:22:00,
2013-11-11 21:23:00,38.7,31.1,30.19,SW,229,0.0,0.0,74,0.00,,,0.00,Wunderground v.1.15,2013-11-12 02:23:00,
2013-11-11 21:25:00,38.5,30.9,30.18,SW,229,0.0,0.0,74,0.00,,,0.00,Wunderground v.1.15,2013-11-12 02:25:00,
2013-11-11 21:27:00,38.4,31.2,30.18,SW,229,0.0,0.0,75,0.00,,,0.00,Wunderground v.1.15,2013-11-12 02:27:00,
2013-11-11 21:28:00,38.3,31.1,30.18,SW,229,0.0,0.0,75,0.00,,,0.00,Wunderground v.1.15,2013-11-12 02:28:00,
2013-11-11 21:29:00,38.3,31.1,30.18,SW,229,0.0,0.0,75,0.00,,,0.00,Wunderground v.1.15,2013-11-12 02:29:00,
2013-11-11 21:30:00,38.2,31.0,30.18,SW,229,0.0,0.0,75,0.00,,,0.00,Wunderground v.1.15,2013-11-12 02:30:00,
2013-11-11 21:31:00,38.3,31.1,30.18,SW,229,0.0,0.0,75,0.00,,,0.00,Wunderground v.1.15,2013-11-12 02:31:00,
2013-11-11 21:32:00,38.2,31.0,30.18,SW,229,0.0,0.0,75,0.00,,,0.00,Wunderground v.1.15,2013-11-12 02:32:00,
2013-11-11 21:33:00,38.2,31.0,30.18,SW,229,0.0,0.0,75,0.00,,,0.00,Wunderground v.1.15,2013-11-12 02:33:00,
2013-11-11 21:34:00,38.2,31.0,30.18,SW,229,0.0,0.0,75,0.00,,,0.00,Wunderground v.1.15,2013-11-12 02:34:00,
2013-11-11 21:35:00,38.2,31.3,30.18,SW,229,0.0,0.0,76,0.00,,,0.00,Wunderground v.1.15,2013-11-12 02:35:00,
2013-11-11 21:36:00,38.1,31.2,30.18,SW,229,0.0,0.0,76,0.00,,,0.00,Wunderground v.1.15,2013-11-12 02:36:00,
2013-11-11 21:37:00,38.1,31.2,30.18,SW,229,0.0,0.0,76,0.00,,,0.00,Wunderground v.1.15,2013-11-12 02:37:00,
2013-11-11 21:39:00,38.1,31.5,30.18,SW,229,0.0,0.0,77,0.00,,,0.00,Wunderground v.1.15,2013-11-12 02:39:00,
2013-11-11 21:40:00,38.1,31.5,30.18,SW,229,0.0,0.0,77,0.00,,,0.00,Wunderground v.1.15,2013-11-12 02:40:00,
2013-11-11 21:41:00,38.1,31.5,30.18,SW,229,0.0,0.0,77,0.00,,,0.00,Wunderground v.1.15,2013-11-12 02:41:00,
2013-11-11 21:42:00,38.1,31.5,30.19,SW,229,0.0,0.0,77,0.00,,,0.00,Wunderground v.1.15,2013-11-12 02:42:00,
2013-11-11 21:44:00,38.1,31.5,30.19,SW,229,0.0,0.0,77,0.00,,,0.00,Wunderground v.1.15,2013-11-12 02:44:00,
2013-11-11 21:45:00,38.2,31.6,30.19,SW,229,0.0,0.0,77,0.00,,,0.00,Wunderground v.1.15,2013-11-12 02:45:00,
2013-11-11 21:46:00,38.2,31.9,30.19,SW,229,0.0,0.0,78,0.00,,,0.00,Wunderground v.1.15,2013-11-12 02:46:00,
2013-11-11 21:47:00,38.2,31.9,30.18,SW,229,0.0,0.0,78,0.00,,,0.00,Wunderground v.1.15,2013-11-12 02:47:00,
2013-11-11 21:49:00,38.3,32.0,30.18,SW,229,0.0,0.0,78,0.00,,,0.00,Wunderground v.1.15,2013-11-12 02:49:00,
2013-11-11 21:50:00,38.3,32.0,30.18,SW,229,0.0,0.0,78,0.00,,,0.00,Wunderground v.1.15,2013-11-12 02:50:00,
2013-11-11 21:51:00,38.3,32.4,30.18,SW,229,0.0,0.0,79,0.00,,,0.00,Wunderground v.1.15,2013-11-12 02:51:00,
2013-11-11 21:52:00,38.3,32.4,30.18,SW,229,0.0,0.0,79,0.00,,,0.00,Wunderground v.1.15,2013-11-12 02:52:00,
2013-11-11 21:54:00,38.3,32.4,30.19,SW,229,1.0,1.0,79,0.00,,,0.00,Wunderground v.1.15,2013-11-12 02:54:00,
2013-11-11 21:55:00,38.3,32.4,30.19,SW,229,0.0,1.0,79,0.00,,,0.00,Wunderground v.1.15,2013-11-12 02:55:00,
2013-11-11 21:56:00,38.3,32.4,30.18,SW,229,0.0,1.0,79,0.00,,,0.00,Wunderground v.1.15,2013-11-12 02:56:00,
2013-11-11 21:57:00,38.3,32.4,30.18,SW,229,0.0,1.0,79,0.00,,,0.00,Wunderground v.1.15,2013-11-12 02:57:00,
2013-11-11 21:59:00,38.3,32.4,30.18,SW,229,0.0,1.0,79,0.00,,,0.00,Wunderground v.1.15,2013-11-12 02:59:00,
2013-11-11 22:00:00,38.2,32.3,30.18,SW,229,0.0,0.0,79,0.00,,,0.00,Wunderground v.1.15,2013-11-12 03:00:00,
2013-11-11 22:01:00,38.3,32.4,30.18,SW,229,0.0,0.0,79,0.00,,,0.00,Wunderground v.1.15,2013-11-12 03:01:00,
2013-11-11 22:02:00,38.2,32.3,30.18,SW,229,0.0,0.0,79,0.00,,,0.00,Wunderground v.1.15,2013-11-12 03:02:00,
2013-11-11 22:03:00,38.2,32.3,30.18,SW,229,0.0,0.0,79,0.00,,,0.00,Wunderground v.1.15,2013-11-12 03:03:00,
2013-11-11 22:05:00,38.2,32.3,30.18,SW,229,0.0,0.0,79,0.00,,,0.00,Wunderground v.1.15,2013-11-12 03:05:00,
2013-11-11 22:06:00,38.2,32.3,30.18,SW,229,0.0,0.0,79,0.00,,,0.00,Wunderground v.1.15,2013-11-12 03:06:00,
2013-11-11 22:07:00,38.2,32.3,30.18,SW,229,0.0,0.0,79,0.00,,,0.00,Wunderground v.1.15,2013-11-12 03:07:00,
2013-11-11 22:08:00,38.1,31.8,30.18,SW,229,0.0,0.0,78,0.00,,,0.00,Wunderground v.1.15,2013-11-12 03:08:00,
2013-11-11 22:10:00,38.1,31.8,30.18,SW,229,0.0,0.0,78,0.00,,,0.00,Wunderground v.1.15,2013-11-12 03:10:00,
2013-11-11 22:11:00,38.0,31.7,30.18,SW,229,0.0,0.0,78,0.00,,,0.00,Wunderground v.1.15,2013-11-12 03:11:00,
2013-11-11 22:12:00,38.0,32.1,30.18,SW,229,0.0,0.0,79,0.00,,,0.00,Wunderground v.1.15,2013-11-12 03:12:00,
2013-11-11 22:13:00,38.0,32.1,30.18,SW,229,0.0,0.0,79,0.00,,,0.00,Wunderground v.1.15,2013-11-12 03:13:00,
2013-11-11 22:15:00,38.0,32.4,30.18,SW,229,0.0,0.0,80,0.00,,,0.00,Wunderground v.1.15,2013-11-12 03:15:00,
2013-11-11 22:16:00,38.0,32.4,30.18,SW,229,0.0,0.0,80,0.00,,,0.00,Wunderground v.1.15,2013-11-12 03:16:00,
2013-11-11 22:17:00,38.0,32.4,30.18,SW,229,0.0,0.0,80,0.00,,,0.00,Wunderground v.1.15,2013-11-12 03:17:00,
2013-11-11 22:18:00,38.0,32.4,30.18,SW,229,0.0,0.0,80,0.00,,,0.00,Wunderground v.1.15,2013-11-12 03:18:00,
2013-11-11 22:19:00,38.0,32.1,30.18,SW,229,0.0,0.0,79,0.00,,,0.00,Wunderground v.1.15,2013-11-12 03:19:00,
2013-11-11 22:20:00,38.0,32.1,30.18,SW,229,0.0,0.0,79,0.00,,,0.00,Wunderground v.1.15,2013-11-12 03:20:00,
2013-11-11 22:21:00,38.0,32.1,30.18,SW,229,0.0,0.0,79,0.00,,,0.00,Wunderground v.1.15,2013-11-12 03:21:00,
2013-11-11 22:22:00,38.0,32.1,30.18,SW,229,0.0,0.0,79,0.00,,,0.00,Wunderground v.1.15,2013-11-12 03:22:00,
2013-11-11 22:23:00,38.0,32.1,30.18,SW,229,0.0,0.0,79,0.00,,,0.00,Wunderground v.1.15,2013-11-12 03:23:00,
2013-11-11 22:25:00,38.0,32.1,30.18,SW,229,0.0,0.0,79,0.00,,,0.00,Wunderground v.1.15,2013-11-12 03:25:00,
2013-11-11 22:26:00,37.9,32.3,30.18,SW,229,0.0,0.0,80,0.00,,,0.00,Wunderground v.1.15,2013-11-12 03:26:00,
2013-11-11 22:27:00,38.0,32.4,30.18,SW,229,0.0,0.0,80,0.00,,,0.00,Wunderground v.1.15,2013-11-12 03:27:00,
2013-11-11 22:29:00,38.0,32.4,30.18,SW,229,0.0,0.0,80,0.00,,,0.00,Wunderground v.1.15,2013-11-12 03:29:00,
2013-11-11 22:30:00,38.0,32.4,30.18,SW,229,0.0,0.0,80,0.00,,,0.00,Wunderground v.1.15,2013-11-12 03:30:00,
2013-11-11 22:32:00,38.0,32.4,30.18,SW,229,0.0,0.0,80,0.00,,,0.00,Wunderground v.1.15,2013-11-12 03:32:00,
2013-11-11 22:34:00,38.0,32.4,30.18,SW,229,0.0,0.0,80,0.00,,,0.00,Wunderground v.1.15,2013-11-12 03:34:00,
2013-11-11 22:35:00,38.0,32.4,30.18,SW,229,0.0,0.0,80,0.00,,,0.00,Wunderground v.1.15,2013-11-12 03:35:00,
2013-11-11 22:36:00,37.9,32.3,30.18,SW,229,0.0,0.0,80,0.00,,,0.00,Wunderground v.1.15,2013-11-12 03:36:00,
2013-11-11 22:37:00,37.9,32.6,30.18,SW,229,0.0,0.0,81,0.00,,,0.00,Wunderground v.1.15,2013-11-12 03:37:00,
2013-11-11 22:39:00,37.9,32.6,30.18,SW,229,0.0,0.0,81,0.00,,,0.00,Wunderground v.1.15,2013-11-12 03:39:00,
2013-11-11 22:41:00,37.8,32.2,30.18,SW,229,0.0,0.0,80,0.00,,,0.00,Wunderground v.1.15,2013-11-12 03:41:00,
2013-11-11 22:42:00,37.8,32.5,30.18,SW,229,0.0,0.0,81,0.00,,,0.00,Wunderground v.1.15,2013-11-12 03:42:00,
2013-11-11 22:44:00,37.7,32.7,30.18,SW,229,0.0,0.0,82,0.00,,,0.00,Wunderground v.1.15,2013-11-12 03:44:00,
2013-11-11 22:46:00,37.7,32.7,30.18,SW,229,0.0,0.0,82,0.00,,,0.00,Wunderground v.1.15,2013-11-12 03:46:00,
2013-11-11 22:47:00,37.7,32.7,30.18,SW,229,0.0,0.0,82,0.00,,,0.00,Wunderground v.1.15,2013-11-12 03:47:00,
2013-11-11 22:49:00,37.6,32.6,30.18,SW,229,0.0,0.0,82,0.00,,,0.00,Wunderground v.1.15,2013-11-12 03:49:00,
2013-11-11 22:51:00,37.6,32.6,30.18,SW,229,0.0,0.0,82,0.00,,,0.00,Wunderground v.1.15,2013-11-12 03:51:00,
2013-11-11 22:52:00,37.6,32.6,30.18,SW,229,0.0,0.0,82,0.00,,,0.00,Wunderground v.1.15,2013-11-12 03:52:00,
2013-11-11 22:53:00,37.6,32.6,30.18,SW,229,0.0,0.0,82,0.00,,,0.00,Wunderground v.1.15,2013-11-12 03:53:00,
2013-11-11 22:55:00,37.5,32.8,30.18,SW,229,0.0,0.0,83,0.00,,,0.00,Wunderground v.1.15,2013-11-12 03:55:00,
2013-11-11 22:56:00,37.5,32.8,30.18,SW,229,0.0,0.0,83,0.00,,,0.00,Wunderground v.1.15,2013-11-12 03:56:00,
2013-11-11 22:57:00,37.5,32.8,30.18,SW,229,0.0,0.0,83,0.00,,,0.00,Wunderground v.1.15,2013-11-12 03:57:00,
2013-11-11 22:58:00,37.5,32.8,30.18,SW,229,0.0,0.0,83,0.00,,,0.00,Wunderground v.1.15,2013-11-12 03:58:00,
2013-11-11 23:00:00,37.5,32.8,30.18,SW,229,0.0,0.0,83,0.00,,,0.00,Wunderground v.1.15,2013-11-12 04:00:00,
2013-11-11 23:01:00,37.4,32.7,30.18,SW,229,0.0,0.0,83,0.00,,,0.00,Wunderground v.1.15,2013-11-12 04:01:00,
2013-11-11 23:02:00,37.4,32.7,30.18,SW,230,0.0,0.0,83,0.00,,,0.00,Wunderground v.1.15,2013-11-12 04:02:00,
2013-11-11 23:03:00,37.4,32.7,30.18,SW,229,0.0,0.0,83,0.00,,,0.00,Wunderground v.1.15,2013-11-12 04:03:00,
2013-11-11 23:06:00,37.3,32.9,30.18,SW,229,0.0,0.0,84,0.00,,,0.00,Wunderground v.1.15,2013-11-12 04:06:00,
2013-11-11 23:07:00,37.2,32.8,30.18,SW,229,0.0,0.0,84,0.00,,,0.00,Wunderground v.1.15,2013-11-12 04:07:00,
2013-11-11 23:08:00,37.2,32.8,30.18,SW,229,0.0,0.0,84,0.00,,,0.00,Wunderground v.1.15,2013-11-12 04:08:00,
2013-11-11 23:10:00,37.1,32.7,30.18,SW,229,0.0,0.0,84,0.00,,,0.00,Wunderground v.1.15,2013-11-12 04:10:00,
2013-11-11 23:11:00,37.1,32.7,30.18,SW,229,0.0,0.0,84,0.00,,,0.00,Wunderground v.1.15,2013-11-12 04:11:00,
2013-11-11 23:12:00,37.1,32.7,30.18,SW,229,1.0,1.0,84,0.00,,,0.00,Wunderground v.1.15,2013-11-12 04:12:00,
2013-11-11 23:13:00,37.1,33.0,30.18,SW,229,0.0,1.0,85,0.00,,,0.00,Wunderground v.1.15,2013-11-12 04:13:00,
2013-11-11 23:14:00,37.1,33.0,30.18,SW,229,0.0,1.0,85,0.00,,,0.00,Wunderground v.1.15,2013-11-12 04:14:00,
2013-11-11 23:15:00,37.1,33.0,30.17,SW,229,0.0,1.0,85,0.00,,,0.00,Wunderground v.1.15,2013-11-12 04:15:00,
2013-11-11 23:16:00,37.1,33.0,30.17,SW,229,0.0,1.0,85,0.00,,,0.00,Wunderground v.1.15,2013-11-12 04:16:00,
2013-11-11 23:17:00,37.1,33.0,30.17,SW,229,0.0,1.0,85,0.00,,,0.00,Wunderground v.1.15,2013-11-12 04:17:00,
2013-11-11 23:19:00,37.1,33.0,30.17,SW,229,0.0,1.0,85,0.00,,,0.00,Wunderground v.1.15,2013-11-12 04:19:00,
2013-11-11 23:21:00,37.1,33.0,30.17,SW,229,0.0,0.0,85,0.00,,,0.00,Wunderground v.1.15,2013-11-12 04:21:00,
2013-11-11 23:22:00,37.0,32.9,30.17,SW,229,0.0,0.0,85,0.00,,,0.00,Wunderground v.1.15,2013-11-12 04:22:00,
2013-11-11 23:24:00,37.1,33.0,30.17,SW,229,0.0,0.0,85,0.00,,,0.00,Wunderground v.1.15,2013-11-12 04:24:00,
2013-11-11 23:27:00,37.1,33.3,30.17,SW,229,0.0,0.0,86,0.00,,,0.00,Wunderground v.1.15,2013-11-12 04:27:00,
2013-11-11 23:28:00,37.1,33.3,30.17,SW,229,0.0,0.0,86,0.00,,,0.00,Wunderground v.1.15,2013-11-12 04:28:00,
2013-11-11 23:29:00,37.1,33.3,30.17,SW,229,0.0,0.0,86,0.00,,,0.00,Wunderground v.1.15,2013-11-12 04:29:00,
2013-11-11 23:30:00,37.1,33.3,30.17,SW,229,0.0,0.0,86,0.00,,,0.00,Wunderground v.1.15,2013-11-12 04:30:00,
2013-11-11 23:32:00,37.1,33.3,30.16,SW,229,0.0,0.0,86,0.00,,,0.00,Wunderground v.1.15,2013-11-12 04:32:00,
2013-11-11 23:34:00,37.1,33.3,30.17,SW,229,0.0,0.0,86,0.00,,,0.00,Wunderground v.1.15,2013-11-12 04:34:00,
2013-11-11 23:35:00,37.1,33.3,30.16,SW,229,0.0,0.0,86,0.00,,,0.00,Wunderground v.1.15,2013-11-12 04:35:00,
2013-11-11 23:37:00,37.0,33.2,30.16,SW,229,0.0,0.0,86,0.00,,,0.00,Wunderground v.1.15,2013-11-12 04:37:00,
2013-11-11 23:39:00,36.9,33.1,30.16,SW,229,0.0,0.0,86,0.00,,,0.00,Wunderground v.1.15,2013-11-12 04:39:00,
2013-11-11 23:40:00,37.0,33.2,30.16,SW,229,0.0,0.0,86,0.00,,,0.00,Wunderground v.1.15,2013-11-12 04:40:00,
2013-11-11 23:42:00,36.9,33.1,30.16,SW,229,0.0,0.0,86,0.00,,,0.00,Wunderground v.1.15,2013-11-12 04:42:00,
2013-11-11 23:43:00,36.9,33.1,30.16,SW,229,0.0,0.0,86,0.00,,,0.00,Wunderground v.1.15,2013-11-12 04:43:00,
2013-11-11 23:44:00,36.8,33.0,30.16,SW,229,0.0,0.0,86,0.00,,,0.00,Wunderground v.1.15,2013-11-12 04:44:00,
2013-11-11 23:45:00,36.8,33.0,30.16,SW,229,0.0,0.0,86,0.00,,,0.00,Wunderground v.1.15,2013-11-12 04:45:00,
2013-11-11 23:47:00,36.8,33.3,30.15,SW,229,0.0,0.0,87,0.00,,,0.00,Wunderground v.1.15,2013-11-12 04:47:00,
2013-11-11 23:48:00,36.8,33.3,30.15,SW,229,0.0,0.0,87,0.00,,,0.00,Wunderground v.1.15,2013-11-12 04:48:00,
2013-11-11 23:50:00,36.8,33.3,30.16,SW,229,0.0,0.0,87,0.00,,,0.00,Wunderground v.1.15,2013-11-12 04:50:00,
2013-11-11 23:53:00,36.7,33.2,30.15,SW,229,0.0,0.0,87,0.00,,,0.00,Wunderground v.1.15,2013-11-12 04:53:00,
2013-11-11 23:55:00,36.7,33.2,30.16,SW,229,0.0,0.0,87,0.00,,,0.00,Wunderground v.1.15,2013-11-12 04:55:00,
2013-11-11 23:56:00,36.7,33.2,30.16,SW,229,0.0,0.0,87,0.00,,,0.00,Wunderground v.1.15,2013-11-12 04:56:00,
2013-11-11 23:58:00,36.6,33.1,30.15,SW,229,0.0,0.0,87,0.00,,,0.00,Wunderground v.1.15,2013-11-12 04:58:00,